Observation data for Estelline on 01/20/2019      Previous  Date       Current Mesonet Observations  Soil Data  Daily Summary Page  Observations in Plain Language
KES1 200600Z 13003KT M03/M08 A3034 RMK A01 T10271076  RH  069%=      5-min Rain = 0
KES1 200601Z 12002KT M03/M08 A3035 RMK A01 T10251075  RH  068%=      5-min Rain = 0
KES1 200602Z 12002KT M02/M08 A3035 RMK A01 T10241076  RH  067%=      5-min Rain = 0
KES1 200603Z 11002KT M02/M08 A3035 RMK A01 T10231076  RH  067%=      5-min Rain = 0
KES1 200604Z 11002KT M02/M08 A3035 RMK A01 T10231076  RH  067%=      5-min Rain = 0
KES1 200605Z 09002KT M02/M08 A3034 RMK A01 T10231076  RH  067%=      5-min Rain = 0
KES1 200606Z 08002KT M02/M08 A3034 RMK A01 T10231077  RH  067%=      5-min Rain = 0
KES1 200607Z 08002KT M02/M08 A3034 RMK A01 T10231077  RH  067%=      5-min Rain = 0
KES1 200608Z 09001KT M02/M08 A3034 RMK A01 T10241077  RH  067%=      5-min Rain = 0
KES1 200609Z 10001KT M03/M08 A3034 RMK A01 T10251077  RH  067%=      5-min Rain = 0
KES1 200610Z 08001KT M03/M08 A3034 RMK A01 T10261077  RH  068%=      5-min Rain = 0
KES1 200611Z 05001KT M03/M08 A3034 RMK A01 T10271077  RH  068%=      5-min Rain = 0
KES1 200612Z 03001KT M03/M08 A3034 RMK A01 T10281078  RH  069%=      5-min Rain = 0
KES1 200613Z 03002KT M03/M08 A3034 RMK A01 T10281077  RH  069%=      5-min Rain = 0
KES1 200614Z 03001KT M03/M08 A3034 RMK A01 T10291077  RH  070%=      5-min Rain = 0
KES1 200615Z 06001KT M03/M08 A3034 RMK A01 T10301076  RH  071%=      5-min Rain = 0
KES1 200616Z 08000KT M03/M08 A3034 RMK A01 T10311076  RH  071%=      5-min Rain = 0
KES1 200617Z 23000KT M03/M08 A3034 RMK A01 T10331077  RH  072%=      5-min Rain = 0
KES1 200618Z 23002KT M04/M08 A3034 RMK A01 T10351078  RH  072%=      5-min Rain = 0
KES1 200619Z 22002KT M04/M08 A3034 RMK A01 T10371079  RH  073%=      5-min Rain = 0
KES1 200620Z 20003KT M04/M08 A3034 RMK A01 T10391080  RH  073%=      5-min Rain = 0
KES1 200621Z 18003KT M04/M08 A3034 RMK A01 T10391078  RH  074%=      5-min Rain = 0
KES1 200622Z 18002KT M04/M08 A3034 RMK A01 T10371076  RH  074%=      5-min Rain = 0
KES1 200623Z 19003KT M03/M08 A3034 RMK A01 T10331075  RH  073%=      5-min Rain = 0
KES1 200624Z 19003KT M03/M08 A3033 RMK A01 T10301075  RH  071%=      5-min Rain = 0
KES1 200625Z 20003KT M03/M08 A3033 RMK A01 T10281075  RH  070%=      5-min Rain = 0
KES1 200626Z 19002KT M03/M08 A3033 RMK A01 T10271075  RH  070%=      5-min Rain = 0
KES1 200627Z 16001KT M03/M08 A3033 RMK A01 T10281077  RH  069%=      5-min Rain = 0
KES1 200628Z 14001KT M03/M08 A3033 RMK A01 T10311079  RH  069%=      5-min Rain = 0
KES1 200629Z 15002KT M03/M08 A3033 RMK A01 T10331079  RH  070%=      5-min Rain = 0
KES1 200630Z 18002KT M03/M08 A3033 RMK A01 T10341079  RH  071%=      5-min Rain = 0
KES1 200631Z 19003KT M03/M08 A3034 RMK A01 T10331078  RH  071%=      5-min Rain = 0
KES1 200632Z 20003KT M03/M08 A3034 RMK A01 T10331078  RH  071%=      5-min Rain = 0
KES1 200633Z 20003KT M04/M08 A3034 RMK A01 T10371081  RH  072%=      5-min Rain = 0
KES1 200634Z 20003KT M04/M08 A3034 RMK A01 T10381080  RH  073%=      5-min Rain = 0
KES1 200635Z 21003KT M04/M08 A3034 RMK A01 T10381078  RH  073%=      5-min Rain = 0
KES1 200636Z 21003KT M04/M08 A3034 RMK A01 T10371078  RH  073%=      5-min Rain = 0
KES1 200637Z 23003KT M04/M08 A3034 RMK A01 T10361078  RH  073%=      5-min Rain = 0
KES1 200638Z 22004KT M04/M08 A3034 RMK A01 T10361078  RH  073%=      5-min Rain = 0
KES1 200639Z 20003KT M04/M08 A3034 RMK A01 T10381079  RH  073%=      5-min Rain = 0
KES1 200640Z 19003KT M04/M08 A3034 RMK A01 T10391080  RH  073%=      5-min Rain = 0
KES1 200641Z 14001KT M04/M08 A3034 RMK A01 T10401080  RH  074%=      5-min Rain = 0
KES1 200642Z 12001KT M04/M08 A3034 RMK A01 T10411080  RH  074%=      5-min Rain = 0
KES1 200643Z 11000KT M04/M08 A3034 RMK A01 T10401079  RH  075%=      5-min Rain = 0
KES1 200644Z 17001KT M04/M08 A3034 RMK A01 T10401079  RH  075%=      5-min Rain = 0
KES1 200645Z 19002KT M04/M08 A3034 RMK A01 T10401079  RH  075%=      5-min Rain = 0
KES1 200646Z 20002KT M04/M08 A3035 RMK A01 T10401078  RH  075%=      5-min Rain = 0
KES1 200647Z 18003KT M04/M08 A3035 RMK A01 T10391078  RH  074%=      5-min Rain = 0
KES1 200648Z 15002KT M04/M08 A3035 RMK A01 T10391078  RH  074%=      5-min Rain = 0
KES1 200649Z 13002KT M04/M08 A3035 RMK A01 T10391078  RH  074%=      5-min Rain = 0
KES1 200650Z 13001KT M04/M08 A3035 RMK A01 T10401080  RH  074%=      5-min Rain = 0
KES1 200651Z 15001KT M04/M08 A3035 RMK A01 T10411080  RH  074%=      5-min Rain = 0
KES1 200652Z 16002KT M04/M08 A3034 RMK A01 T10411079  RH  075%=      5-min Rain = 0
KES1 200653Z 17003KT M04/M08 A3034 RMK A01 T10411078  RH  075%=      5-min Rain = 0
KES1 200654Z 17004KT M04/M08 A3034 RMK A01 T10391077  RH  075%=      5-min Rain = 0
KES1 200655Z 16004KT M04/M08 A3034 RMK A01 T10361077  RH  073%=      5-min Rain = 0
KES1 200656Z 16004KT M03/M08 A3034 RMK A01 T10331076  RH  072%=      5-min Rain = 0
KES1 200657Z 16004KT M03/M08 A3034 RMK A01 T10331077  RH  071%=      5-min Rain = 0
KES1 200658Z 17004KT M03/M08 A3034 RMK A01 T10321077  RH  071%=      5-min Rain = 0
KES1 200659Z 17005KT M03/M08 A3034 RMK A01 T10321078  RH  071%=      5-min Rain = 0
KES1 200700Z 17005KT M03/M08 A3034 RMK A01 T10321078  RH  070%=      5-min Rain = 0
KES1 200701Z 17005KT M03/M08 A3034 RMK A01 T10311078  RH  070%=      5-min Rain = 0
KES1 200702Z 17005KT M03/M08 A3034 RMK A01 T10301078  RH  069%=      5-min Rain = 0
KES1 200703Z 17004KT M03/M08 A3034 RMK A01 T10291077  RH  069%=      5-min Rain = 0
KES1 200704Z 16004KT M03/M08 A3034 RMK A01 T10281078  RH  069%=      5-min Rain = 0
KES1 200705Z 15003KT M03/M08 A3034 RMK A01 T10271078  RH  068%=      5-min Rain = 0
KES1 200706Z 15002KT M03/M08 A3034 RMK A01 T10281079  RH  068%=      5-min Rain = 0
KES1 200707Z 16003KT M03/M08 A3034 RMK A01 T10311081  RH  068%=      5-min Rain = 0
KES1 200708Z 17003KT M03/M08 A3035 RMK A01 T10321081  RH  069%=      5-min Rain = 0
KES1 200709Z 18004KT M03/M08 A3035 RMK A01 T10331080  RH  070%=      5-min Rain = 0
KES1 200710Z 19004KT M03/M08 A3035 RMK A01 T10321079  RH  070%=      5-min Rain = 0
KES1 200711Z 20004KT M03/M08 A3035 RMK A01 T10321079  RH  070%=      5-min Rain = 0
KES1 200712Z 20005KT M03/M08 A3034 RMK A01 T10321079  RH  070%=      5-min Rain = 0
KES1 200713Z 19004KT M03/M08 A3034 RMK A01 T10321079  RH  070%=      5-min Rain = 0
KES1 200714Z 20004KT M03/M08 A3034 RMK A01 T10321079  RH  070%=      5-min Rain = 0
KES1 200715Z 20004KT M03/M08 A3034 RMK A01 T10321079  RH  070%=      5-min Rain = 0
KES1 200716Z 19003KT M03/M08 A3034 RMK A01 T10311078  RH  070%=      5-min Rain = 0
KES1 200717Z 18003KT M03/M08 A3034 RMK A01 T10321079  RH  070%=      5-min Rain = 0
KES1 200718Z 17003KT M04/M08 A3033 RMK A01 T10351081  RH  071%=      5-min Rain = 0
KES1 200719Z 17004KT M04/M08 A3033 RMK A01 T10381082  RH  072%=      5-min Rain = 0
KES1 200720Z 17004KT M04/M08 A3033 RMK A01 T10391081  RH  073%=      5-min Rain = 0
KES1 200721Z 18004KT M04/M08 A3033 RMK A01 T10391079  RH  073%=      5-min Rain = 0
KES1 200722Z 18005KT M04/M08 A3033 RMK A01 T10371078  RH  073%=      5-min Rain = 0
KES1 200723Z 18005KT M04/M08 A3033 RMK A01 T10351077  RH  072%=      5-min Rain = 0
KES1 200724Z 18006KT M03/M08 A3034 RMK A01 T10341077  RH  072%=      5-min Rain = 0
KES1 200725Z 18006KT M03/M08 A3034 RMK A01 T10321076  RH  072%=      5-min Rain = 0
KES1 200726Z 18006KT M03/M08 A3034 RMK A01 T10311076  RH  071%=      5-min Rain = 0
KES1 200727Z 18005KT M03/M08 A3034 RMK A01 T10301077  RH  070%=      5-min Rain = 0
KES1 200728Z 18005KT M03/M08 A3034 RMK A01 T10291077  RH  070%=      5-min Rain = 0
KES1 200729Z 18004KT M03/M08 A3034 RMK A01 T10281077  RH  069%=      5-min Rain = 0
KES1 200730Z 18004KT M03/M08 A3034 RMK A01 T10281077  RH  069%=      5-min Rain = 0
KES1 200731Z 18004KT M03/M08 A3034 RMK A01 T10281077  RH  069%=      5-min Rain = 0
KES1 200732Z 18004KT M03/M08 A3034 RMK A01 T10291077  RH  069%=      5-min Rain = 0
KES1 200733Z 17004KT M03/M08 A3034 RMK A01 T10301078  RH  069%=      5-min Rain = 0
KES1 200734Z 18003KT M03/M08 A3034 RMK A01 T10311079  RH  069%=      5-min Rain = 0
KES1 200735Z 17004KT M03/M08 A3034 RMK A01 T10321079  RH  070%=      5-min Rain = 0
KES1 200736Z 17004KT M03/M08 A3034 RMK A01 T10331080  RH  070%=      5-min Rain = 0
KES1 200737Z 18004KT M04/M08 A3034 RMK A01 T10351080  RH  071%=      5-min Rain = 0
KES1 200738Z 18005KT M04/M08 A3034 RMK A01 T10361079  RH  072%=      5-min Rain = 0
KES1 200739Z 19005KT M04/M08 A3034 RMK A01 T10351078  RH  072%=      5-min Rain = 0
KES1 200740Z 18006KT M03/M08 A3034 RMK A01 T10331076  RH  072%=      5-min Rain = 0
KES1 200741Z 18005KT M03/M08 A3034 RMK A01 T10311076  RH  071%=      5-min Rain = 0
KES1 200742Z 17005KT M03/M08 A3034 RMK A01 T10311076  RH  071%=      5-min Rain = 0
KES1 200743Z 17004KT M03/M08 A3034 RMK A01 T10321078  RH  070%=      5-min Rain = 0
KES1 200744Z 17004KT M04/M08 A3034 RMK A01 T10351080  RH  071%=      5-min Rain = 0
KES1 200745Z 17004KT M04/M08 A3034 RMK A01 T10361080  RH  072%=      5-min Rain = 0
KES1 200746Z 17004KT M04/M08 A3034 RMK A01 T10371080  RH  072%=      5-min Rain = 0
KES1 200747Z 17005KT M04/M08 A3034 RMK A01 T10371079  RH  073%=      5-min Rain = 0
KES1 200748Z 17005KT M04/M08 A3034 RMK A01 T10371079  RH  073%=      5-min Rain = 0
KES1 200749Z 18006KT M04/M08 A3034 RMK A01 T10361078  RH  073%=      5-min Rain = 0
KES1 200750Z 18006KT M03/M08 A3034 RMK A01 T10341077  RH  072%=      5-min Rain = 0
KES1 200751Z 18006KT M03/M08 A3034 RMK A01 T10311076  RH  071%=      5-min Rain = 0
KES1 200752Z 18006KT M03/M08 A3034 RMK A01 T10301076  RH  071%=      5-min Rain = 0
KES1 200753Z 18005KT M03/M08 A3034 RMK A01 T10301076  RH  071%=      5-min Rain = 0
KES1 200754Z 18005KT M03/M08 A3034 RMK A01 T10301077  RH  070%=      5-min Rain = 0
KES1 200755Z 18006KT M03/M08 A3034 RMK A01 T10301077  RH  070%=      5-min Rain = 0
KES1 200756Z 18006KT M03/M08 A3034 RMK A01 T10301077  RH  070%=      5-min Rain = 0
KES1 200757Z 18007KT M03/M08 A3034 RMK A01 T10301077  RH  070%=      5-min Rain = 0
KES1 200758Z 18007KT M03/M08 A3034 RMK A01 T10301077  RH  070%=      5-min Rain = 0
KES1 200759Z 18006KT M03/M08 A3034 RMK A01 T10301077  RH  070%=      5-min Rain = 0
KES1 200800Z 18006KT M03/M08 A3034 RMK A01 T10291076  RH  070%=      5-min Rain = 0
KES1 200801Z 18005KT M03/M08 A3034 RMK A01 T10291076  RH  070%=      5-min Rain = 0
KES1 200802Z 18005KT M03/M08 A3034 RMK A01 T10291077  RH  070%=      5-min Rain = 0
KES1 200803Z 18005KT M03/M08 A3034 RMK A01 T10291077  RH  070%=      5-min Rain = 0
KES1 200804Z 18006KT M03/M08 A3034 RMK A01 T10291077  RH  069%=      5-min Rain = 0
KES1 200805Z 18006KT M03/M08 A3034 RMK A01 T10301077  RH  070%=      5-min Rain = 0
KES1 200806Z 18007KT M03/M08 A3034 RMK A01 T10301077  RH  070%=      5-min Rain = 0
KES1 200807Z 18006KT M03/M08 A3034 RMK A01 T10301077  RH  070%=      5-min Rain = 0
KES1 200808Z 18006KT M03/M08 A3034 RMK A01 T10301077  RH  070%=      5-min Rain = 0
KES1 200809Z 18006KT M03/M08 A3034 RMK A01 T10301077  RH  070%=      5-min Rain = 0
KES1 200810Z 18006KT M03/M08 A3034 RMK A01 T10301077  RH  070%=      5-min Rain = 0
KES1 200811Z 19006KT M03/M08 A3034 RMK A01 T10301077  RH  070%=      5-min Rain = 0
KES1 200812Z 19005KT M03/M08 A3034 RMK A01 T10301078  RH  070%=      5-min Rain = 0
KES1 200813Z 19005KT M03/M08 A3034 RMK A01 T10311078  RH  070%=      5-min Rain = 0
KES1 200814Z 19005KT M03/M08 A3034 RMK A01 T10301078  RH  069%=      5-min Rain = 0
KES1 200815Z 19004KT M03/M08 A3034 RMK A01 T10301079  RH  069%=      5-min Rain = 0
KES1 200816Z 19004KT M03/M08 A3034 RMK A01 T10311079  RH  069%=      5-min Rain = 0
KES1 200817Z 19005KT M03/M08 A3035 RMK A01 T10301079  RH  069%=      5-min Rain = 0
KES1 200818Z 19004KT M03/M08 A3035 RMK A01 T10301079  RH  069%=      5-min Rain = 0
KES1 200819Z 19005KT M03/M08 A3035 RMK A01 T10301079  RH  069%=      5-min Rain = 0
KES1 200820Z 19004KT M03/M08 A3035 RMK A01 T10311079  RH  069%=      5-min Rain = 0
KES1 200821Z 19004KT M03/M08 A3035 RMK A01 T10311079  RH  070%=      5-min Rain = 0
KES1 200822Z 19004KT M03/M08 A3035 RMK A01 T10321079  RH  070%=      5-min Rain = 0
KES1 200823Z 19004KT M03/M08 A3035 RMK A01 T10321079  RH  070%=      5-min Rain = 0
KES1 200824Z 19004KT M03/M08 A3035 RMK A01 T10321079  RH  070%=      5-min Rain = 0
KES1 200825Z 19004KT M03/M08 A3035 RMK A01 T10331079  RH  070%=      5-min Rain = 0
KES1 200826Z 19004KT M03/M08 A3035 RMK A01 T10331079  RH  070%=      5-min Rain = 0
KES1 200827Z 19004KT M03/M08 A3035 RMK A01 T10331079  RH  070%=      5-min Rain = 0
KES1 200828Z 20004KT M03/M08 A3035 RMK A01 T10331079  RH  071%=      5-min Rain = 0
KES1 200829Z 20005KT M03/M08 A3035 RMK A01 T10341080  RH  071%=      5-min Rain = 0
KES1 200830Z 21005KT M04/M08 A3035 RMK A01 T10361082  RH  071%=      5-min Rain = 0
KES1 200831Z 21005KT M04/M08 A3036 RMK A01 T10391083  RH  071%=      5-min Rain = 0
KES1 200832Z 21005KT M04/M08 A3036 RMK A01 T10411084  RH  072%=      5-min Rain = 0
KES1 200833Z 21005KT M04/M08 A3036 RMK A01 T10431084  RH  073%=      5-min Rain = 0
KES1 200834Z 21004KT M04/M08 A3035 RMK A01 T10431083  RH  074%=      5-min Rain = 0
KES1 200835Z 20004KT M04/M08 A3035 RMK A01 T10421082  RH  074%=      5-min Rain = 0
KES1 200836Z 20003KT M04/M08 A3035 RMK A01 T10421081  RH  074%=      5-min Rain = 0
KES1 200837Z 19004KT M04/M08 A3035 RMK A01 T10431082  RH  074%=      5-min Rain = 0
KES1 200838Z 19004KT M05/M08 A3035 RMK A01 T10451082  RH  075%=      5-min Rain = 0
KES1 200839Z 19006KT M04/M08 A3035 RMK A01 T10441081  RH  075%=      5-min Rain = 0
KES1 200840Z 20006KT M04/M08 A3035 RMK A01 T10421079  RH  075%=      5-min Rain = 0
KES1 200841Z 20006KT M04/M08 A3035 RMK A01 T10401079  RH  074%=      5-min Rain = 0
KES1 200842Z 20006KT M04/M08 A3035 RMK A01 T10401080  RH  074%=      5-min Rain = 0
KES1 200843Z 20006KT M04/M08 A3034 RMK A01 T10391080  RH  073%=      5-min Rain = 0
KES1 200844Z 19005KT M04/M08 A3034 RMK A01 T10381080  RH  073%=      5-min Rain = 0
KES1 200845Z 19005KT M04/M08 A3034 RMK A01 T10371079  RH  072%=      5-min Rain = 0
KES1 200846Z 19005KT M04/M08 A3034 RMK A01 T10361080  RH  072%=      5-min Rain = 0
KES1 200847Z 18004KT M04/M08 A3034 RMK A01 T10361080  RH  072%=      5-min Rain = 0
KES1 200848Z 18004KT M04/M08 A3034 RMK A01 T10361081  RH  071%=      5-min Rain = 0
KES1 200849Z 18005KT M04/M08 A3034 RMK A01 T10371081  RH  071%=      5-min Rain = 0
KES1 200850Z 18005KT M04/M08 A3034 RMK A01 T10381081  RH  072%=      5-min Rain = 0
KES1 200851Z 18006KT M04/M08 A3034 RMK A01 T10381081  RH  072%=      5-min Rain = 0
KES1 200852Z 18006KT M04/M08 A3034 RMK A01 T10371080  RH  072%=      5-min Rain = 0
KES1 200853Z 18006KT M04/M08 A3034 RMK A01 T10351079  RH  071%=      5-min Rain = 0
KES1 200854Z 17006KT M03/M08 A3034 RMK A01 T10341079  RH  071%=      5-min Rain = 0
KES1 200855Z 17005KT M03/M08 A3034 RMK A01 T10331080  RH  070%=      5-min Rain = 0
KES1 200856Z 18005KT M03/M08 A3034 RMK A01 T10321080  RH  069%=      5-min Rain = 0
KES1 200857Z 18006KT M03/M08 A3035 RMK A01 T10321080  RH  069%=      5-min Rain = 0
KES1 200858Z 19006KT M03/M08 A3035 RMK A01 T10321080  RH  069%=      5-min Rain = 0
KES1 200859Z 19007KT M03/M08 A3035 RMK A01 T10311080  RH  069%=      5-min Rain = 0
KES1 200900Z 19007KT M03/M08 A3035 RMK A01 T10311080  RH  069%=      5-min Rain = 0
KES1 200901Z 18006KT M03/M08 A3035 RMK A01 T10311080  RH  069%=      5-min Rain = 0
KES1 200902Z 18006KT M03/M08 A3035 RMK A01 T10301080  RH  068%=      5-min Rain = 0
KES1 200903Z 17005KT M03/M08 A3035 RMK A01 T10301080  RH  068%=      5-min Rain = 0
KES1 200904Z 16005KT M03/M08 A3034 RMK A01 T10301080  RH  068%=      5-min Rain = 0
KES1 200905Z 16004KT M03/M08 A3034 RMK A01 T10311081  RH  068%=      5-min Rain = 0
KES1 200906Z 17004KT M03/M08 A3034 RMK A01 T10331082  RH  069%=      5-min Rain = 0
KES1 200907Z 17005KT M03/M08 A3034 RMK A01 T10341082  RH  070%=      5-min Rain = 0
KES1 200908Z 17006KT M03/M08 A3034 RMK A01 T10341081  RH  070%=      5-min Rain = 0
KES1 200909Z 17006KT M03/M08 A3034 RMK A01 T10341081  RH  070%=      5-min Rain = 0
KES1 200910Z 17006KT M03/M08 A3034 RMK A01 T10341081  RH  070%=      5-min Rain = 0
KES1 200911Z 18006KT M03/M08 A3034 RMK A01 T10331080  RH  070%=      5-min Rain = 0
KES1 200912Z 19006KT M03/M08 A3034 RMK A01 T10331081  RH  069%=      5-min Rain = 0
KES1 200913Z 19005KT M03/M08 A3034 RMK A01 T10321081  RH  069%=      5-min Rain = 0
KES1 200914Z 19005KT M03/M08 A3034 RMK A01 T10321081  RH  069%=      5-min Rain = 0
KES1 200915Z 18005KT M03/M08 A3034 RMK A01 T10311081  RH  069%=      5-min Rain = 0
KES1 200916Z 18005KT M03/M08 A3035 RMK A01 T10311081  RH  069%=      5-min Rain = 0
KES1 200917Z 18005KT M03/M08 A3035 RMK A01 T10321081  RH  069%=      5-min Rain = 0
KES1 200918Z 18005KT M03/M08 A3035 RMK A01 T10321081  RH  069%=      5-min Rain = 0
KES1 200919Z 18005KT M03/M08 A3035 RMK A01 T10321081  RH  069%=      5-min Rain = 0
KES1 200920Z 18005KT M03/M08 A3035 RMK A01 T10321081  RH  069%=      5-min Rain = 0
KES1 200921Z 18005KT M03/M08 A3035 RMK A01 T10321081  RH  069%=      5-min Rain = 0
KES1 200922Z 18005KT M03/M08 A3034 RMK A01 T10331081  RH  069%=      5-min Rain = 0
KES1 200923Z 18005KT M03/M08 A3034 RMK A01 T10331081  RH  070%=      5-min Rain = 0
KES1 200924Z 18005KT M03/M08 A3034 RMK A01 T10341081  RH  070%=      5-min Rain = 0
KES1 200925Z 18005KT M04/M08 A3034 RMK A01 T10351082  RH  070%=      5-min Rain = 0
KES1 200926Z 18006KT M04/M08 A3034 RMK A01 T10371083  RH  071%=      5-min Rain = 0
KES1 200927Z 18006KT M04/M08 A3034 RMK A01 T10381083  RH  071%=      5-min Rain = 0
KES1 200928Z 19006KT M04/M08 A3034 RMK A01 T10381082  RH  072%=      5-min Rain = 0
KES1 200929Z 19006KT M04/M08 A3034 RMK A01 T10381081  RH  072%=      5-min Rain = 0
KES1 200930Z 18006KT M04/M08 A3033 RMK A01 T10361080  RH  072%=      5-min Rain = 0
KES1 200931Z 18005KT M04/M08 A3033 RMK A01 T10351080  RH  071%=      5-min Rain = 0
KES1 200932Z 17005KT M04/M08 A3033 RMK A01 T10351081  RH  071%=      5-min Rain = 0
KES1 200933Z 17004KT M04/M08 A3033 RMK A01 T10381083  RH  071%=      5-min Rain = 0
KES1 200934Z 18005KT M04/M08 A3034 RMK A01 T10411084  RH  072%=      5-min Rain = 0
KES1 200935Z 18006KT M04/M08 A3034 RMK A01 T10411083  RH  073%=      5-min Rain = 0
KES1 200936Z 18006KT M04/M08 A3033 RMK A01 T10401082  RH  073%=      5-min Rain = 0
KES1 200937Z 18006KT M04/M08 A3033 RMK A01 T10391081  RH  073%=      5-min Rain = 0
KES1 200938Z 18005KT M04/M08 A3033 RMK A01 T10381080  RH  072%=      5-min Rain = 0
KES1 200939Z 18005KT M04/M08 A3033 RMK A01 T10361080  RH  072%=      5-min Rain = 0
KES1 200940Z 18004KT M04/M08 A3033 RMK A01 T10361081  RH  071%=      5-min Rain = 0
KES1 200941Z 17004KT M04/M08 A3033 RMK A01 T10361081  RH  071%=      5-min Rain = 0
KES1 200942Z 17004KT M04/M08 A3033 RMK A01 T10371082  RH  071%=      5-min Rain = 0
KES1 200943Z 18005KT M04/M08 A3033 RMK A01 T10371082  RH  071%=      5-min Rain = 0
KES1 200944Z 18005KT M04/M08 A3033 RMK A01 T10381082  RH  072%=      5-min Rain = 0
KES1 200945Z 18005KT M04/M08 A3033 RMK A01 T10381082  RH  072%=      5-min Rain = 0
KES1 200946Z 18005KT M04/M08 A3033 RMK A01 T10381082  RH  072%=      5-min Rain = 0
KES1 200947Z 18005KT M04/M08 A3033 RMK A01 T10381082  RH  071%=      5-min Rain = 0
KES1 200948Z 19005KT M04/M08 A3033 RMK A01 T10371082  RH  071%=      5-min Rain = 0
KES1 200949Z 18005KT M04/M08 A3033 RMK A01 T10371081  RH  071%=      5-min Rain = 0
KES1 200950Z 18005KT M04/M08 A3033 RMK A01 T10371081  RH  071%=      5-min Rain = 0
KES1 200951Z 18004KT M04/M08 A3033 RMK A01 T10391083  RH  071%=      5-min Rain = 0
KES1 200952Z 18004KT M04/M08 A3033 RMK A01 T10411083  RH  072%=      5-min Rain = 0
KES1 200953Z 19004KT M04/M08 A3033 RMK A01 T10421083  RH  073%=      5-min Rain = 0
KES1 200954Z 19005KT M04/M08 A3033 RMK A01 T10421082  RH  074%=      5-min Rain = 0
KES1 200955Z 19004KT M04/M08 A3033 RMK A01 T10401081  RH  073%=      5-min Rain = 0
KES1 200956Z 18004KT M04/M08 A3033 RMK A01 T10391080  RH  073%=      5-min Rain = 0
KES1 200957Z 18004KT M04/M08 A3033 RMK A01 T10391081  RH  073%=      5-min Rain = 0
KES1 200958Z 18004KT M04/M08 A3033 RMK A01 T10391081  RH  072%=      5-min Rain = 0
KES1 200959Z 18005KT M04/M08 A3033 RMK A01 T10391081  RH  072%=      5-min Rain = 0
KES1 201000Z 18005KT M04/M08 A3033 RMK A01 T10391081  RH  073%=      5-min Rain = 0
KES1 201001Z 19005KT M04/M08 A3033 RMK A01 T10391081  RH  073%=      5-min Rain = 0
KES1 201002Z 19005KT M04/M08 A3033 RMK A01 T10391081  RH  073%=      5-min Rain = 0
KES1 201003Z 20005KT M04/M08 A3033 RMK A01 T10381080  RH  073%=      5-min Rain = 0
KES1 201004Z 20005KT M04/M08 A3033 RMK A01 T10381080  RH  072%=      5-min Rain = 0
KES1 201005Z 20005KT M04/M08 A3032 RMK A01 T10391081  RH  073%=      5-min Rain = 0
KES1 201006Z 20005KT M04/M08 A3032 RMK A01 T10401081  RH  073%=      5-min Rain = 0
KES1 201007Z 19005KT M04/M08 A3032 RMK A01 T10401081  RH  073%=      5-min Rain = 0
KES1 201008Z 19005KT M04/M08 A3033 RMK A01 T10401081  RH  074%=      5-min Rain = 0
KES1 201009Z 20005KT M04/M08 A3033 RMK A01 T10401080  RH  074%=      5-min Rain = 0
KES1 201010Z 19004KT M04/M08 A3033 RMK A01 T10401080  RH  074%=      5-min Rain = 0
KES1 201011Z 20004KT M04/M08 A3033 RMK A01 T10411081  RH  074%=      5-min Rain = 0
KES1 201012Z 20004KT M04/M08 A3033 RMK A01 T10421081  RH  074%=      5-min Rain = 0
KES1 201013Z 20005KT M04/M08 A3032 RMK A01 T10421082  RH  074%=      5-min Rain = 0
KES1 201014Z 20005KT M04/M08 A3032 RMK A01 T10431082  RH  074%=      5-min Rain = 0
KES1 201015Z 19004KT M04/M08 A3032 RMK A01 T10441082  RH  075%=      5-min Rain = 0
KES1 201016Z 19004KT M05/M08 A3032 RMK A01 T10451082  RH  075%=      5-min Rain = 0
KES1 201017Z 18004KT M05/M08 A3032 RMK A01 T10451082  RH  075%=      5-min Rain = 0
KES1 201018Z 17004KT M05/M08 A3032 RMK A01 T10451082  RH  075%=      5-min Rain = 0
KES1 201019Z 17004KT M04/M08 A3032 RMK A01 T10441081  RH  075%=      5-min Rain = 0
KES1 201020Z 18005KT M04/M08 A3032 RMK A01 T10431081  RH  075%=      5-min Rain = 0
KES1 201021Z 19005KT M04/M08 A3032 RMK A01 T10431081  RH  075%=      5-min Rain = 0
KES1 201022Z 19005KT M04/M08 A3032 RMK A01 T10411080  RH  075%=      5-min Rain = 0
KES1 201023Z 19004KT M04/M08 A3032 RMK A01 T10411080  RH  074%=      5-min Rain = 0
KES1 201024Z 19004KT M04/M08 A3031 RMK A01 T10401080  RH  074%=      5-min Rain = 0
KES1 201025Z 19004KT M04/M08 A3031 RMK A01 T10401080  RH  074%=      5-min Rain = 0
KES1 201026Z 19004KT M04/M08 A3031 RMK A01 T10391080  RH  073%=      5-min Rain = 0
KES1 201027Z 20004KT M04/M08 A3032 RMK A01 T10391080  RH  073%=      5-min Rain = 0
KES1 201028Z 20005KT M04/M08 A3032 RMK A01 T10391081  RH  073%=      5-min Rain = 0
KES1 201029Z 19005KT M04/M08 A3032 RMK A01 T10411082  RH  073%=      5-min Rain = 0
KES1 201030Z 19005KT M04/M08 A3032 RMK A01 T10421081  RH  074%=      5-min Rain = 0
KES1 201031Z 19005KT M04/M08 A3032 RMK A01 T10411080  RH  074%=      5-min Rain = 0
KES1 201032Z 19004KT M04/M08 A3032 RMK A01 T10401079  RH  074%=      5-min Rain = 0
KES1 201033Z 19004KT M04/M08 A3032 RMK A01 T10391079  RH  074%=      5-min Rain = 0
KES1 201034Z 19004KT M04/M08 A3032 RMK A01 T10391079  RH  073%=      5-min Rain = 0
KES1 201035Z 19004KT M04/M08 A3032 RMK A01 T10391080  RH  073%=      5-min Rain = 0
KES1 201036Z 20004KT M04/M08 A3032 RMK A01 T10391080  RH  073%=      5-min Rain = 0
KES1 201037Z 20004KT M04/M08 A3032 RMK A01 T10401081  RH  073%=      5-min Rain = 0
KES1 201038Z 20004KT M04/M08 A3032 RMK A01 T10401081  RH  073%=      5-min Rain = 0
KES1 201039Z 20004KT M04/M08 A3032 RMK A01 T10411082  RH  073%=      5-min Rain = 0
KES1 201040Z 20005KT M04/M08 A3032 RMK A01 T10421082  RH  074%=      5-min Rain = 0
KES1 201041Z 20005KT M04/M08 A3032 RMK A01 T10431082  RH  074%=      5-min Rain = 0
KES1 201042Z 20005KT M04/M08 A3033 RMK A01 T10431082  RH  074%=      5-min Rain = 0
KES1 201043Z 20005KT M04/M08 A3033 RMK A01 T10441082  RH  075%=      5-min Rain = 0
KES1 201044Z 20005KT M04/M08 A3032 RMK A01 T10441082  RH  075%=      5-min Rain = 0
KES1 201045Z 20005KT M04/M08 A3032 RMK A01 T10441082  RH  075%=      5-min Rain = 0
KES1 201046Z 20005KT M04/M08 A3032 RMK A01 T10441082  RH  075%=      5-min Rain = 0
KES1 201047Z 19005KT M04/M08 A3032 RMK A01 T10431082  RH  074%=      5-min Rain = 0
KES1 201048Z 20006KT M04/M08 A3032 RMK A01 T10431082  RH  074%=      5-min Rain = 0
KES1 201049Z 20006KT M04/M08 A3032 RMK A01 T10431082  RH  074%=      5-min Rain = 0
KES1 201050Z 21006KT M04/M08 A3032 RMK A01 T10441082  RH  074%=      5-min Rain = 0
KES1 201051Z 21006KT M04/M08 A3032 RMK A01 T10441082  RH  075%=      5-min Rain = 0
KES1 201052Z 20006KT M04/M08 A3032 RMK A01 T10441083  RH  075%=      5-min Rain = 0
KES1 201053Z 20005KT M05/M08 A3032 RMK A01 T10451083  RH  075%=      5-min Rain = 0
KES1 201054Z 19005KT M05/M08 A3032 RMK A01 T10451083  RH  075%=      5-min Rain = 0
KES1 201055Z 19005KT M04/M08 A3031 RMK A01 T10441083  RH  075%=      5-min Rain = 0
KES1 201056Z 18005KT M04/M08 A3031 RMK A01 T10441083  RH  075%=      5-min Rain = 0
KES1 201057Z 19005KT M04/M08 A3032 RMK A01 T10431082  RH  074%=      5-min Rain = 0
KES1 201058Z 19006KT M04/M08 A3032 RMK A01 T10421082  RH  074%=      5-min Rain = 0
KES1 201059Z 20006KT M04/M08 A3032 RMK A01 T10411081  RH  074%=      5-min Rain = 0
KES1 201100Z 20006KT M04/M08 A3032 RMK A01 T10411082  RH  074%=      5-min Rain = 0
KES1 201101Z 20006KT M04/M08 A3031 RMK A01 T10411082  RH  073%=      5-min Rain = 0
KES1 201102Z 19005KT M04/M08 A3031 RMK A01 T10411081  RH  073%=      5-min Rain = 0
KES1 201103Z 19005KT M04/M08 A3031 RMK A01 T10411082  RH  073%=      5-min Rain = 0
KES1 201104Z 19006KT M04/M08 A3031 RMK A01 T10401081  RH  073%=      5-min Rain = 0
KES1 201105Z 19006KT M04/M08 A3031 RMK A01 T10401081  RH  073%=      5-min Rain = 0
KES1 201106Z 19006KT M04/M08 A3031 RMK A01 T10391080  RH  073%=      5-min Rain = 0
KES1 201107Z 19006KT M04/M08 A3031 RMK A01 T10381081  RH  072%=      5-min Rain = 0
KES1 201108Z 19006KT M04/M08 A3031 RMK A01 T10381081  RH  072%=      5-min Rain = 0
KES1 201109Z 19006KT M04/M08 A303 RMK A01 T10381081  RH  072%=      5-min Rain = 0
KES1 201110Z 20006KT M04/M08 A303 RMK A01 T10381081  RH  072%=      5-min Rain = 0
KES1 201111Z 20006KT M04/M08 A303 RMK A01 T10371081  RH  072%=      5-min Rain = 0
KES1 201112Z 19005KT M04/M08 A303 RMK A01 T10371081  RH  072%=      5-min Rain = 0
KES1 201113Z 19006KT M04/M08 A303 RMK A01 T10381081  RH  072%=      5-min Rain = 0
KES1 201114Z 19006KT M04/M08 A303 RMK A01 T10381081  RH  072%=      5-min Rain = 0
KES1 201115Z 19005KT M04/M08 A303 RMK A01 T10391081  RH  072%=      5-min Rain = 0
KES1 201116Z 19006KT M04/M08 A303 RMK A01 T10391081  RH  072%=      5-min Rain = 0
KES1 201117Z 19005KT M04/M08 A303 RMK A01 T10381081  RH  072%=      5-min Rain = 0
KES1 201118Z 19005KT M04/M08 A303 RMK A01 T10381081  RH  072%=      5-min Rain = 0
KES1 201119Z 18005KT M04/M08 A303 RMK A01 T10381081  RH  072%=      5-min Rain = 0
KES1 201120Z 18005KT M04/M08 A303 RMK A01 T10381081  RH  072%=      5-min Rain = 0
KES1 201121Z 19005KT M04/M08 A303 RMK A01 T10381081  RH  072%=      5-min Rain = 0
KES1 201122Z 19006KT M04/M08 A303 RMK A01 T10381081  RH  072%=      5-min Rain = 0
KES1 201123Z 19006KT M04/M08 A303 RMK A01 T10381081  RH  072%=      5-min Rain = 0
KES1 201124Z 19006KT M04/M08 A3029 RMK A01 T10381081  RH  072%=      5-min Rain = 0
KES1 201125Z 19005KT M04/M08 A3029 RMK A01 T10381081  RH  072%=      5-min Rain = 0
KES1 201126Z 19006KT M04/M08 A3029 RMK A01 T10381080  RH  073%=      5-min Rain = 0
KES1 201127Z 19005KT M04/M08 A303 RMK A01 T10381080  RH  073%=      5-min Rain = 0
KES1 201128Z 19006KT M04/M08 A303 RMK A01 T10381080  RH  073%=      5-min Rain = 0
KES1 201129Z 19006KT M04/M08 A303 RMK A01 T10391080  RH  073%=      5-min Rain = 0
KES1 201130Z 18005KT M04/M08 A303 RMK A01 T10391080  RH  073%=      5-min Rain = 0
KES1 201131Z 18006KT M04/M08 A303 RMK A01 T10391080  RH  073%=      5-min Rain = 0
KES1 201132Z 18006KT M04/M08 A303 RMK A01 T10391080  RH  073%=      5-min Rain = 0
KES1 201133Z 18005KT M04/M08 A303 RMK A01 T10391080  RH  073%=      5-min Rain = 0
KES1 201134Z 18005KT M04/M08 A303 RMK A01 T10391080  RH  073%=      5-min Rain = 0
KES1 201135Z 18005KT M04/M08 A303 RMK A01 T10401080  RH  074%=      5-min Rain = 0
KES1 201136Z 18005KT M04/M08 A303 RMK A01 T10401080  RH  074%=      5-min Rain = 0
KES1 201137Z 18005KT M04/M08 A303 RMK A01 T10401080  RH  074%=      5-min Rain = 0
KES1 201138Z 19005KT M04/M08 A303 RMK A01 T10401080  RH  074%=      5-min Rain = 0
KES1 201139Z 19005KT M04/M08 A303 RMK A01 T10401080  RH  074%=      5-min Rain = 0
KES1 201140Z 19005KT M04/M08 A303 RMK A01 T10401080  RH  074%=      5-min Rain = 0
KES1 201141Z 19005KT M04/M08 A303 RMK A01 T10401080  RH  074%=      5-min Rain = 0
KES1 201142Z 19004KT M04/M08 A303 RMK A01 T10401080  RH  074%=      5-min Rain = 0
KES1 201143Z 19004KT M04/M08 A303 RMK A01 T10401080  RH  074%=      5-min Rain = 0
KES1 201144Z 19004KT M04/M08 A303 RMK A01 T10401080  RH  074%=      5-min Rain = 0
KES1 201145Z 19004KT M04/M08 A3029 RMK A01 T10411080  RH  074%=      5-min Rain = 0
KES1 201146Z 19004KT M04/M08 A3029 RMK A01 T10411079  RH  075%=      5-min Rain = 0
KES1 201147Z 19004KT M04/M08 A3029 RMK A01 T10411079  RH  075%=      5-min Rain = 0
KES1 201148Z 19004KT M04/M08 A3029 RMK A01 T10421079  RH  075%=      5-min Rain = 0
KES1 201149Z 19004KT M04/M08 A3029 RMK A01 T10421079  RH  075%=      5-min Rain = 0
KES1 201150Z 19004KT M04/M08 A3029 RMK A01 T10421079  RH  075%=      5-min Rain = 0
KES1 201151Z 19004KT M04/M08 A303 RMK A01 T10421079  RH  075%=      5-min Rain = 0
KES1 201152Z 19004KT M04/M08 A303 RMK A01 T10421079  RH  075%=      5-min Rain = 0
KES1 201153Z 19005KT M04/M08 A303 RMK A01 T10431080  RH  075%=      5-min Rain = 0
KES1 201154Z 20005KT M04/M08 A303 RMK A01 T10431080  RH  075%=      5-min Rain = 0
KES1 201155Z 20005KT M04/M08 A3029 RMK A01 T10431080  RH  076%=      5-min Rain = 0
KES1 201156Z 20004KT M04/M08 A3029 RMK A01 T10431079  RH  076%=      5-min Rain = 0
KES1 201157Z 20005KT M04/M08 A3029 RMK A01 T10441080  RH  076%=      5-min Rain = 0
KES1 201158Z 20004KT M05/M08 A3029 RMK A01 T10451080  RH  076%=      5-min Rain = 0
KES1 201159Z 20004KT M05/M08 A3029 RMK A01 T10451080  RH  076%=      5-min Rain = 0
KES1 201200Z 20005KT M05/M08 A303 RMK A01 T10461080  RH  077%=      5-min Rain = 0
KES1 201201Z 20005KT M05/M08 A303 RMK A01 T10461080  RH  077%=      5-min Rain = 0
KES1 201202Z 20004KT M05/M08 A303 RMK A01 T10461080  RH  077%=      5-min Rain = 0
KES1 201203Z 20004KT M05/M08 A303 RMK A01 T10471080  RH  077%=      5-min Rain = 0
KES1 201204Z 20004KT M05/M08 A303 RMK A01 T10471081  RH  077%=      5-min Rain = 0
KES1 201205Z 20004KT M05/M08 A303 RMK A01 T10471080  RH  077%=      5-min Rain = 0
KES1 201206Z 20004KT M05/M08 A303 RMK A01 T10471081  RH  077%=      5-min Rain = 0
KES1 201207Z 20004KT M05/M08 A303 RMK A01 T10481081  RH  078%=      5-min Rain = 0
KES1 201208Z 20004KT M05/M08 A303 RMK A01 T10481081  RH  078%=      5-min Rain = 0
KES1 201209Z 20004KT M05/M08 A303 RMK A01 T10491081  RH  078%=      5-min Rain = 0
KES1 201210Z 20003KT M05/M08 A303 RMK A01 T10491081  RH  078%=      5-min Rain = 0
KES1 201211Z 20003KT M05/M08 A303 RMK A01 T10491081  RH  078%=      5-min Rain = 0
KES1 201212Z 20003KT M05/M08 A303 RMK A01 T10491081  RH  079%=      5-min Rain = 0
KES1 201213Z 21003KT M05/M08 A303 RMK A01 T10491081  RH  079%=      5-min Rain = 0
KES1 201214Z 21003KT M05/M08 A303 RMK A01 T10501081  RH  079%=      5-min Rain = 0
KES1 201215Z 21004KT M05/M08 A303 RMK A01 T10501081  RH  079%=      5-min Rain = 0
KES1 201216Z 21004KT M05/M08 A303 RMK A01 T10511081  RH  079%=      5-min Rain = 0
KES1 201217Z 21003KT M05/M08 A303 RMK A01 T10511082  RH  079%=      5-min Rain = 0
KES1 201218Z 21003KT M05/M08 A303 RMK A01 T10511082  RH  079%=      5-min Rain = 0
KES1 201219Z 21004KT M05/M08 A303 RMK A01 T10511081  RH  079%=      5-min Rain = 0
KES1 201220Z 21005KT M05/M08 A303 RMK A01 T10521082  RH  080%=      5-min Rain = 0
KES1 201221Z 21004KT M05/M08 A303 RMK A01 T10521082  RH  080%=      5-min Rain = 0
KES1 201222Z 20005KT M05/M08 A303 RMK A01 T10521082  RH  080%=      5-min Rain = 0
KES1 201223Z 20004KT M05/M08 A303 RMK A01 T10521081  RH  080%=      5-min Rain = 0
KES1 201224Z 20004KT M05/M08 A303 RMK A01 T10521081  RH  080%=      5-min Rain = 0
KES1 201225Z 20004KT M05/M08 A303 RMK A01 T10521081  RH  080%=      5-min Rain = 0
KES1 201226Z 20004KT M05/M08 A303 RMK A01 T10521081  RH  080%=      5-min Rain = 0
KES1 201227Z 19005KT M05/M08 A3029 RMK A01 T10521081  RH  080%=      5-min Rain = 0
KES1 201228Z 19005KT M05/M08 A3029 RMK A01 T10511081  RH  080%=      5-min Rain = 0
KES1 201229Z 19005KT M05/M08 A3029 RMK A01 T10511081  RH  080%=      5-min Rain = 0
KES1 201230Z 20006KT M05/M08 A3029 RMK A01 T10511080  RH  080%=      5-min Rain = 0
KES1 201231Z 20006KT M05/M08 A3029 RMK A01 T10501080  RH  080%=      5-min Rain = 0
KES1 201232Z 20005KT M05/M08 A3029 RMK A01 T10501080  RH  079%=      5-min Rain = 0
KES1 201233Z 19006KT M05/M08 A3029 RMK A01 T10501080  RH  079%=      5-min Rain = 0
KES1 201234Z 20005KT M05/M08 A3029 RMK A01 T10491080  RH  079%=      5-min Rain = 0
KES1 201235Z 20005KT M05/M08 A3029 RMK A01 T10481079  RH  079%=      5-min Rain = 0
KES1 201236Z 19005KT M05/M08 A3029 RMK A01 T10481079  RH  079%=      5-min Rain = 0
KES1 201237Z 20006KT M05/M08 A3029 RMK A01 T10481079  RH  079%=      5-min Rain = 0
KES1 201238Z 19007KT M05/M08 A3029 RMK A01 T10471079  RH  078%=      5-min Rain = 0
KES1 201239Z 20007KT M05/M08 A3029 RMK A01 T10471079  RH  078%=      5-min Rain = 0
KES1 201240Z 20006KT M05/M08 A3029 RMK A01 T10461079  RH  078%=      5-min Rain = 0
KES1 201241Z 20006KT M05/M08 A3029 RMK A01 T10461079  RH  078%=      5-min Rain = 0
KES1 201242Z 21006KT M05/M08 A3029 RMK A01 T10471080  RH  078%=      5-min Rain = 0
KES1 201243Z 21006KT M05/M08 A3029 RMK A01 T10471080  RH  078%=      5-min Rain = 0
KES1 201244Z 20005KT M05/M08 A3029 RMK A01 T10481080  RH  078%=      5-min Rain = 0
KES1 201245Z 20005KT M05/M08 A3029 RMK A01 T10481080  RH  079%=      5-min Rain = 0
KES1 201246Z 20005KT M05/M08 A3029 RMK A01 T10491080  RH  079%=      5-min Rain = 0
KES1 201247Z 20005KT M05/M08 A3029 RMK A01 T10491080  RH  079%=      5-min Rain = 0
KES1 201248Z 21004KT M05/M08 A3029 RMK A01 T10501080  RH  079%=      5-min Rain = 0
KES1 201249Z 20005KT M05/M08 A3029 RMK A01 T10501080  RH  079%=      5-min Rain = 0
KES1 201250Z 20005KT M05/M08 A3029 RMK A01 T10501080  RH  080%=      5-min Rain = 0
KES1 201251Z 20005KT M05/M08 A3029 RMK A01 T10501079  RH  080%=      5-min Rain = 0
KES1 201252Z 19005KT M05/M08 A3029 RMK A01 T10501080  RH  080%=      5-min Rain = 0
KES1 201253Z 19005KT M05/M08 A3028 RMK A01 T10501080  RH  080%=      5-min Rain = 0
KES1 201254Z 19005KT M05/M08 A3028 RMK A01 T10491079  RH  080%=      5-min Rain = 0
KES1 201255Z 19006KT M05/M08 A3028 RMK A01 T10481079  RH  079%=      5-min Rain = 0
KES1 201256Z 19006KT M05/M08 A3029 RMK A01 T10471078  RH  079%=      5-min Rain = 0
KES1 201257Z 19006KT M05/M08 A3029 RMK A01 T10461078  RH  078%=      5-min Rain = 0
KES1 201258Z 19006KT M04/M08 A3029 RMK A01 T10441077  RH  078%=      5-min Rain = 0
KES1 201259Z 19006KT M04/M08 A3029 RMK A01 T10431077  RH  077%=      5-min Rain = 0
KES1 201300Z 19006KT M04/M08 A3029 RMK A01 T10421077  RH  076%=      5-min Rain = 0
KES1 201301Z 19007KT M04/M08 A3028 RMK A01 T10421078  RH  076%=      5-min Rain = 0
KES1 201302Z 19006KT M04/M08 A3028 RMK A01 T10411078  RH  076%=      5-min Rain = 0
KES1 201303Z 19006KT M04/M08 A3028 RMK A01 T10411078  RH  075%=      5-min Rain = 0
KES1 201304Z 19006KT M04/M08 A3028 RMK A01 T10411078  RH  075%=      5-min Rain = 0
KES1 201305Z 19006KT M04/M08 A3028 RMK A01 T10411078  RH  075%=      5-min Rain = 0
KES1 201306Z 19005KT M04/M08 A3028 RMK A01 T10411078  RH  075%=      5-min Rain = 0
KES1 201307Z 18005KT M04/M08 A3029 RMK A01 T10411078  RH  076%=      5-min Rain = 0
KES1 201308Z 19006KT M04/M08 A3029 RMK A01 T10411078  RH  076%=      5-min Rain = 0
KES1 201309Z 18005KT M04/M08 A3029 RMK A01 T10411078  RH  076%=      5-min Rain = 0
KES1 201310Z 18005KT M04/M08 A3029 RMK A01 T10411078  RH  076%=      5-min Rain = 0
KES1 201311Z 18005KT M04/M08 A3029 RMK A01 T10411078  RH  076%=      5-min Rain = 0
KES1 201312Z 19005KT M04/M08 A3029 RMK A01 T10411078  RH  076%=      5-min Rain = 0
KES1 201313Z 18005KT M04/M08 A3029 RMK A01 T10411078  RH  076%=      5-min Rain = 0
KES1 201314Z 19005KT M04/M08 A3029 RMK A01 T10421078  RH  076%=      5-min Rain = 0
KES1 201315Z 19005KT M04/M08 A3029 RMK A01 T10421078  RH  076%=      5-min Rain = 0
KES1 201316Z 19005KT M04/M08 A3029 RMK A01 T10411077  RH  076%=      5-min Rain = 0
KES1 201317Z 20005KT M04/M08 A3029 RMK A01 T10411077  RH  076%=      5-min Rain = 0
KES1 201318Z 20005KT M04/M08 A3029 RMK A01 T10411077  RH  076%=      5-min Rain = 0
KES1 201319Z 20006KT M04/M08 A3029 RMK A01 T10411077  RH  076%=      5-min Rain = 0
KES1 201320Z 20006KT M04/M08 A3029 RMK A01 T10411077  RH  076%=      5-min Rain = 0
KES1 201321Z 20006KT M04/M08 A3029 RMK A01 T10411077  RH  076%=      5-min Rain = 0
KES1 201322Z 20006KT M04/M08 A3029 RMK A01 T10411077  RH  076%=      5-min Rain = 0
KES1 201323Z 20006KT M04/M08 A3029 RMK A01 T10401077  RH  076%=      5-min Rain = 0
KES1 201324Z 19007KT M04/M08 A3029 RMK A01 T10401076  RH  076%=      5-min Rain = 0
KES1 201325Z 19006KT M04/M08 A3029 RMK A01 T10391076  RH  075%=      5-min Rain = 0
KES1 201326Z 20007KT M04/M08 A3029 RMK A01 T10381076  RH  075%=      5-min Rain = 0
KES1 201327Z 19006KT M04/M08 A3029 RMK A01 T10381076  RH  075%=      5-min Rain = 0
KES1 201328Z 20006KT M04/M08 A3029 RMK A01 T10381076  RH  075%=      5-min Rain = 0
KES1 201329Z 20006KT M04/M08 A3029 RMK A01 T10381076  RH  075%=      5-min Rain = 0
KES1 201330Z 19006KT M04/M08 A3029 RMK A01 T10371076  RH  075%=      5-min Rain = 0
KES1 201331Z 19007KT M04/M08 A3029 RMK A01 T10371076  RH  074%=      5-min Rain = 0
KES1 201332Z 19007KT M04/M08 A3029 RMK A01 T10361075  RH  074%=      5-min Rain = 0
KES1 201333Z 19007KT M04/M08 A3029 RMK A01 T10361076  RH  074%=      5-min Rain = 0
KES1 201334Z 19006KT M04/M08 A3029 RMK A01 T10361076  RH  074%=      5-min Rain = 0
KES1 201335Z 19006KT M04/M08 A3029 RMK A01 T10361076  RH  074%=      5-min Rain = 0
KES1 201336Z 20006KT M04/M08 A3029 RMK A01 T10361076  RH  074%=      5-min Rain = 0
KES1 201337Z 19007KT M04/M08 A3029 RMK A01 T10371076  RH  074%=      5-min Rain = 0
KES1 201338Z 19006KT M04/M08 A3029 RMK A01 T10371076  RH  074%=      5-min Rain = 0
KES1 201339Z 19005KT M04/M08 A3029 RMK A01 T10381077  RH  074%=      5-min Rain = 0
KES1 201340Z 18006KT M04/M08 A3029 RMK A01 T10381076  RH  075%=      5-min Rain = 0
KES1 201341Z 18005KT M04/M08 A3029 RMK A01 T10381076  RH  075%=      5-min Rain = 0
KES1 201342Z 18005KT M04/M08 A3029 RMK A01 T10391077  RH  075%=      5-min Rain = 0
KES1 201343Z 19006KT M04/M08 A3029 RMK A01 T10391077  RH  075%=      5-min Rain = 0
KES1 201344Z 19006KT M04/M08 A3029 RMK A01 T10381076  RH  075%=      5-min Rain = 0
KES1 201345Z 19006KT M04/M08 A303 RMK A01 T10391076  RH  075%=      5-min Rain = 0
KES1 201346Z 19006KT M04/M08 A303 RMK A01 T10391077  RH  075%=      5-min Rain = 0
KES1 201347Z 20006KT M04/M08 A303 RMK A01 T10391077  RH  075%=      5-min Rain = 0
KES1 201348Z 19006KT M04/M08 A3029 RMK A01 T10391077  RH  075%=      5-min Rain = 0
KES1 201349Z 20006KT M04/M08 A3029 RMK A01 T10391077  RH  075%=      5-min Rain = 0
KES1 201350Z 20006KT M04/M08 A3029 RMK A01 T10391077  RH  075%=      5-min Rain = 0
KES1 201351Z 20005KT M04/M08 A3029 RMK A01 T10401077  RH  075%=      5-min Rain = 0
KES1 201352Z 20005KT M04/M08 A3029 RMK A01 T10401077  RH  076%=      5-min Rain = 0
KES1 201353Z 20006KT M04/M08 A3029 RMK A01 T10411077  RH  076%=      5-min Rain = 0
KES1 201354Z 19005KT M04/M08 A3029 RMK A01 T10401077  RH  076%=      5-min Rain = 0
KES1 201355Z 19005KT M04/M08 A3029 RMK A01 T10401077  RH  076%=      5-min Rain = 0
KES1 201356Z 19005KT M04/M08 A3029 RMK A01 T10411077  RH  076%=      5-min Rain = 0
KES1 201357Z 19005KT M04/M08 A3029 RMK A01 T10401077  RH  076%=      5-min Rain = 0
KES1 201358Z 19005KT M04/M08 A3029 RMK A01 T10401077  RH  076%=      5-min Rain = 0
KES1 201359Z 19005KT M04/M08 A3029 RMK A01 T10391076  RH  076%=      5-min Rain = 0
KES1 201400Z 19005KT M04/M08 A3029 RMK A01 T10391076  RH  075%=      5-min Rain = 0
KES1 201401Z 18005KT M04/M08 A3029 RMK A01 T10391076  RH  075%=      5-min Rain = 0
KES1 201402Z 18005KT M04/M08 A3029 RMK A01 T10391076  RH  075%=      5-min Rain = 0
KES1 201403Z 18005KT M04/M08 A3029 RMK A01 T10391077  RH  075%=      5-min Rain = 0
KES1 201404Z 18005KT M04/M08 A3029 RMK A01 T10401076  RH  076%=      5-min Rain = 0
KES1 201405Z 18005KT M04/M08 A3029 RMK A01 T10401076  RH  076%=      5-min Rain = 0
KES1 201406Z 18005KT M04/M08 A3029 RMK A01 T10391076  RH  075%=      5-min Rain = 0
KES1 201407Z 18005KT M04/M08 A3029 RMK A01 T10381075  RH  075%=      5-min Rain = 0
KES1 201408Z 18005KT M04/M08 A3029 RMK A01 T10371075  RH  075%=      5-min Rain = 0
KES1 201409Z 18005KT M04/M08 A3029 RMK A01 T10361075  RH  074%=      5-min Rain = 0
KES1 201410Z 17005KT M04/M08 A3029 RMK A01 T10351075  RH  074%=      5-min Rain = 0
KES1 201411Z 18003KT M04/M08 A3029 RMK A01 T10351075  RH  074%=      5-min Rain = 0
KES1 201412Z 17004KT M04/M08 A3029 RMK A01 T10351075  RH  074%=      5-min Rain = 0
KES1 201413Z 17003KT M03/M07 A3029 RMK A01 T10341074  RH  074%=      5-min Rain = 0
KES1 201414Z 17003KT M03/M07 A3029 RMK A01 T10341074  RH  074%=      5-min Rain = 0
KES1 201415Z 17004KT M04/M07 A3029 RMK A01 T10351073  RH  074%=      5-min Rain = 0
KES1 201416Z 16004KT M04/M07 A3029 RMK A01 T10351073  RH  075%=      5-min Rain = 0
KES1 201417Z 16004KT M04/M07 A3029 RMK A01 T10361074  RH  075%=      5-min Rain = 0
KES1 201418Z 17004KT M04/M07 A3029 RMK A01 T10361074  RH  075%=      5-min Rain = 0
KES1 201419Z 17004KT M04/M07 A3029 RMK A01 T10371074  RH  076%=      5-min Rain = 0
KES1 201420Z 18004KT M04/M07 A3029 RMK A01 T10371073  RH  076%=      5-min Rain = 0
KES1 201421Z 17005KT M04/M07 A3029 RMK A01 T10361073  RH  076%=      5-min Rain = 0
KES1 201422Z 17005KT M04/M07 A3028 RMK A01 T10361073  RH  075%=      5-min Rain = 0
KES1 201423Z 17005KT M04/M07 A3028 RMK A01 T10351072  RH  075%=      5-min Rain = 0
KES1 201424Z 16005KT M03/M07 A3028 RMK A01 T10341072  RH  075%=      5-min Rain = 0
KES1 201425Z 17005KT M03/M07 A3028 RMK A01 T10341072  RH  075%=      5-min Rain = 0
KES1 201426Z 17005KT M03/M07 A3028 RMK A01 T10341072  RH  075%=      5-min Rain = 0
KES1 201427Z 17005KT M03/M07 A3029 RMK A01 T10341072  RH  075%=      5-min Rain = 0
KES1 201428Z 17005KT M03/M07 A3029 RMK A01 T10341072  RH  075%=      5-min Rain = 0
KES1 201429Z 17005KT M03/M07 A3029 RMK A01 T10341072  RH  075%=      5-min Rain = 0
KES1 201430Z 17005KT M04/M07 A3029 RMK A01 T10351072  RH  075%=      5-min Rain = 0
KES1 201431Z 17004KT M03/M07 A3029 RMK A01 T10341071  RH  075%=      5-min Rain = 0
KES1 201432Z 17004KT M03/M07 A3029 RMK A01 T10341071  RH  076%=      5-min Rain = 0
KES1 201433Z 17003KT M03/M07 A3029 RMK A01 T10341071  RH  075%=      5-min Rain = 0
KES1 201434Z 18004KT M03/M07 A3029 RMK A01 T10331070  RH  075%=      5-min Rain = 0
KES1 201435Z 18004KT M03/M07 A3029 RMK A01 T10331070  RH  075%=      5-min Rain = 0
KES1 201436Z 17004KT M03/M07 A3029 RMK A01 T10321071  RH  075%=      5-min Rain = 0
KES1 201437Z 17004KT M03/M07 A3029 RMK A01 T10311071  RH  074%=      5-min Rain = 0
KES1 201438Z 17004KT M03/M07 A3029 RMK A01 T10311070  RH  074%=      5-min Rain = 0
KES1 201439Z 18004KT M03/M07 A3029 RMK A01 T10311070  RH  075%=      5-min Rain = 0
KES1 201440Z 18004KT M03/M07 A3029 RMK A01 T10311070  RH  075%=      5-min Rain = 0
KES1 201441Z 18003KT M03/M07 A3029 RMK A01 T10311070  RH  075%=      5-min Rain = 0
KES1 201442Z 18003KT M03/M07 A3029 RMK A01 T10311070  RH  075%=      5-min Rain = 0
KES1 201443Z 18004KT M03/M07 A3029 RMK A01 T10311069  RH  075%=      5-min Rain = 0
KES1 201444Z 18003KT M03/M07 A3029 RMK A01 T10301068  RH  075%=      5-min Rain = 0
KES1 201445Z 17003KT M03/M07 A3029 RMK A01 T10301067  RH  075%=      5-min Rain = 0
KES1 201446Z 18004KT M03/M07 A3029 RMK A01 T10291067  RH  075%=      5-min Rain = 0
KES1 201447Z 18004KT M03/M07 A3029 RMK A01 T10281067  RH  075%=      5-min Rain = 0
KES1 201448Z 18004KT M03/M07 A3029 RMK A01 T10281067  RH  074%=      5-min Rain = 0
KES1 201449Z 19003KT M03/M07 A3029 RMK A01 T10271068  RH  074%=      5-min Rain = 0
KES1 201450Z 19003KT M03/M07 A3029 RMK A01 T10271067  RH  074%=      5-min Rain = 0
KES1 201451Z 19005KT M03/M07 A3029 RMK A01 T10261067  RH  073%=      5-min Rain = 0
KES1 201452Z 19005KT M03/M07 A3029 RMK A01 T10251069  RH  072%=      5-min Rain = 0
KES1 201453Z 19004KT M03/M07 A3029 RMK A01 T10251068  RH  072%=      5-min Rain = 0
KES1 201454Z 19005KT M02/M07 A3029 RMK A01 T10241067  RH  072%=      5-min Rain = 0
KES1 201455Z 19006KT M02/M07 A3029 RMK A01 T10241068  RH  072%=      5-min Rain = 0
KES1 201456Z 19005KT M02/M07 A3028 RMK A01 T10231066  RH  072%=      5-min Rain = 0
KES1 201457Z 19005KT M02/M07 A3028 RMK A01 T10221066  RH  072%=      5-min Rain = 0
KES1 201458Z 19006KT M02/M07 A3028 RMK A01 T10221067  RH  071%=      5-min Rain = 0
KES1 201459Z 19004KT M02/M07 A3029 RMK A01 T10221067  RH  071%=      5-min Rain = 0
KES1 201500Z 19004KT M02/M07 A3029 RMK A01 T10221067  RH  071%=      5-min Rain = 0
KES1 201501Z 19005KT M02/M07 A3029 RMK A01 T10221066  RH  071%=      5-min Rain = 0
KES1 201502Z 19004KT M02/M07 A3029 RMK A01 T10211066  RH  071%=      5-min Rain = 0
KES1 201503Z 20004KT M02/M07 A3028 RMK A01 T10211066  RH  071%=      5-min Rain = 0
KES1 201504Z 19005KT M02/M07 A3028 RMK A01 T10211065  RH  072%=      5-min Rain = 0
KES1 201505Z 20004KT M02/M06 A3028 RMK A01 T10201064  RH  072%=      5-min Rain = 0
KES1 201506Z 20005KT M02/M06 A3028 RMK A01 T10201063  RH  072%=      5-min Rain = 0
KES1 201507Z 20005KT M02/M06 A3028 RMK A01 T10191063  RH  072%=      5-min Rain = 0
KES1 201508Z 19005KT M02/M06 A3028 RMK A01 T10191063  RH  072%=      5-min Rain = 0
KES1 201509Z 19005KT M02/M06 A3028 RMK A01 T10181062  RH  072%=      5-min Rain = 0
KES1 201510Z 18005KT M02/M06 A3028 RMK A01 T10171061  RH  072%=      5-min Rain = 0
KES1 201511Z 19004KT M02/M06 A3028 RMK A01 T10161060  RH  072%=      5-min Rain = 0
KES1 201512Z 19005KT M02/M06 A3028 RMK A01 T10151060  RH  071%=      5-min Rain = 0
KES1 201513Z 19005KT M02/M06 A3028 RMK A01 T10151060  RH  071%=      5-min Rain = 0
KES1 201514Z 19004KT M01/M06 A3028 RMK A01 T10141060  RH  071%=      5-min Rain = 0
KES1 201515Z 19005KT M01/M06 A3028 RMK A01 T10131060  RH  071%=      5-min Rain = 0
KES1 201516Z 19003KT M01/M06 A3028 RMK A01 T10131060  RH  070%=      5-min Rain = 0
KES1 201517Z 19003KT M01/M06 A3028 RMK A01 T10131059  RH  071%=      5-min Rain = 0
KES1 201518Z 19005KT M01/M06 A3028 RMK A01 T10111057  RH  071%=      5-min Rain = 0
KES1 201519Z 19006KT M01/M06 A3028 RMK A01 T10101057  RH  071%=      5-min Rain = 0
KES1 201520Z 19006KT M01/M06 A3028 RMK A01 T10101058  RH  070%=      5-min Rain = 0
KES1 201521Z 19006KT M01/M06 A3028 RMK A01 T10101059  RH  070%=      5-min Rain = 0
KES1 201522Z 19006KT M01/M06 A3028 RMK A01 T10101058  RH  070%=      5-min Rain = 0
KES1 201523Z 19005KT M01/M06 A3028 RMK A01 T10101057  RH  070%=      5-min Rain = 0
KES1 201524Z 19004KT M01/M06 A3028 RMK A01 T10091057  RH  070%=      5-min Rain = 0
KES1 201525Z 20004KT M01/M06 A3028 RMK A01 T10091056  RH  070%=      5-min Rain = 0
KES1 201526Z 20003KT M01/M05 A3028 RMK A01 T10081054  RH  071%=      5-min Rain = 0
KES1 201527Z 19005KT M01/M05 A3028 RMK A01 T10061053  RH  071%=      5-min Rain = 0
KES1 201528Z 20005KT M01/M05 A3028 RMK A01 T10061054  RH  070%=      5-min Rain = 0
KES1 201529Z 19005KT M01/M05 A3028 RMK A01 T10051053  RH  070%=      5-min Rain = 0
KES1 201530Z 19005KT M00/M05 A3027 RMK A01 T10041053  RH  070%=      5-min Rain = 0
KES1 201531Z 20006KT M00/M05 A3027 RMK A01 T10031053  RH  069%=      5-min Rain = 0
KES1 201532Z 20007KT M00/M06 A3027 RMK A01 T10031055  RH  068%=      5-min Rain = 0
KES1 201533Z 21006KT M00/M06 A3027 RMK A01 T10021056  RH  067%=      5-min Rain = 0
KES1 201534Z 21005KT M00/M06 A3027 RMK A01 T10021056  RH  067%=      5-min Rain = 0
KES1 201535Z 20004KT M00/M06 A3027 RMK A01 T10011055  RH  067%=      5-min Rain = 0
KES1 201536Z 20004KT M00/M06 A3027 RMK A01 T10011055  RH  067%=      5-min Rain = 0
KES1 201537Z 21005KT 00/06 A3027 RMK A01 T00000-55  RH  066%=      5-min Rain = 0
KES1 201538Z 20008KT 00/M06 A3027 RMK A01 T00011055  RH  066%=      5-min Rain = 0
KES1 201539Z 21004KT 00/M06 A3027 RMK A01 T00021055  RH  065%=      5-min Rain = 0
KES1 201540Z 20004KT 00/M05 A3027 RMK A01 T00031054  RH  066%=      5-min Rain = 0
KES1 201541Z 21003KT 01/M05 A3027 RMK A01 T00051053  RH  065%=      5-min Rain = 0
KES1 201542Z 21006KT 01/M05 A3027 RMK A01 T00061052  RH  065%=      5-min Rain = 0
KES1 201543Z 21005KT 01/M06 A3027 RMK A01 T00061055  RH  063%=      5-min Rain = 0
KES1 201544Z 22006KT 01/M06 A3028 RMK A01 T00071055  RH  063%=      5-min Rain = 0
KES1 201545Z 21009KT 01/M06 A3027 RMK A01 T00081056  RH  062%=      5-min Rain = 0
KES1 201546Z 21009KT 01/M06 A3027 RMK A01 T00091058  RH  061%=      5-min Rain = 0
KES1 201547Z 22010KT 01/M06 A3027 RMK A01 T00101060  RH  059%=      5-min Rain = 0
KES1 201548Z 22009KT 01/M06 A3027 RMK A01 T00111060  RH  059%=      5-min Rain = 0
KES1 201549Z 21008KT 01/M06 A3027 RMK A01 T00121060  RH  059%=      5-min Rain = 0
KES1 201550Z 21009G14KT 01/M06 A3027 RMK A01 T00131059  RH  059%=      5-min Rain = 0
KES1 201551Z 21009KT 01/M06 A3027 RMK A01 T00141060  RH  058%=      5-min Rain = 0
KES1 201552Z 21010KT 01/M06 A3027 RMK A01 T00141060  RH  058%=      5-min Rain = 0
KES1 201553Z 21012KT 01/M06 A3027 RMK A01 T00141062  RH  057%=      5-min Rain = 0
KES1 201554Z 21011KT 01/M06 A3027 RMK A01 T00141063  RH  057%=      5-min Rain = 0
KES1 201555Z 21012KT 01/M06 A3027 RMK A01 T00131063  RH  057%=      5-min Rain = 0
KES1 201556Z 21012KT 01/M06 A3027 RMK A01 T00131064  RH  057%=      5-min Rain = 0
KES1 201557Z 20010KT 01/M06 A3027 RMK A01 T00131063  RH  057%=      5-min Rain = 0
KES1 201558Z 20010KT 01/M06 A3027 RMK A01 T00131062  RH  057%=      5-min Rain = 0
KES1 201559Z 20009KT 01/M06 A3027 RMK A01 T00141062  RH  057%=      5-min Rain = 0
KES1 201600Z 20008KT 01/M06 A3027 RMK A01 T00141062  RH  057%=      5-min Rain = 0
KES1 201601Z 20009KT 02/M06 A3027 RMK A01 T00151060  RH  057%=      5-min Rain = 0
KES1 201602Z 20010KT 02/M06 A3027 RMK A01 T00161060  RH  057%=      5-min Rain = 0
KES1 201603Z 20011KT 02/M06 A3026 RMK A01 T00171060  RH  057%=      5-min Rain = 0
KES1 201604Z 21008KT 02/M06 A3026 RMK A01 T00171060  RH  057%=      5-min Rain = 0
KES1 201605Z 21008KT 02/M06 A3026 RMK A01 T00181057  RH  057%=      5-min Rain = 0
KES1 201606Z 21008KT 02/M06 A3026 RMK A01 T00201056  RH  057%=      5-min Rain = 0
KES1 201607Z 22008KT 02/M06 A3026 RMK A01 T00221055  RH  057%=      5-min Rain = 0
KES1 201608Z 22008KT 02/M06 A3026 RMK A01 T00221057  RH  056%=      5-min Rain = 0
KES1 201609Z 22009KT 02/M06 A3026 RMK A01 T00221057  RH  056%=      5-min Rain = 0
KES1 201610Z 21010KT 02/M06 A3026 RMK A01 T00231057  RH  055%=      5-min Rain = 0
KES1 201611Z 21008KT 02/M06 A3026 RMK A01 T00231057  RH  056%=      5-min Rain = 0
KES1 201612Z 21010KT 02/M06 A3026 RMK A01 T00231057  RH  056%=      5-min Rain = 0
KES1 201613Z 20011KT 02/M06 A3026 RMK A01 T00231058  RH  055%=      5-min Rain = 0
KES1 201614Z 20011KT 02/M06 A3026 RMK A01 T00231058  RH  055%=      5-min Rain = 0
KES1 201615Z 21008KT 02/M06 A3026 RMK A01 T00231057  RH  056%=      5-min Rain = 0
KES1 201616Z 21007KT 03/M06 A3026 RMK A01 T00251055  RH  056%=      5-min Rain = 0
KES1 201617Z 21007KT 03/M05 A3026 RMK A01 T00261054  RH  055%=      5-min Rain = 0
KES1 201618Z 21005KT 03/M05 A3026 RMK A01 T00271054  RH  055%=      5-min Rain = 0
KES1 201619Z 20009KT 03/M05 A3026 RMK A01 T00281052  RH  055%=      5-min Rain = 0
KES1 201620Z 20010KT 03/M05 A3026 RMK A01 T00291054  RH  054%=      5-min Rain = 0
KES1 201621Z 20010KT 03/M06 A3026 RMK A01 T00281055  RH  054%=      5-min Rain = 0
KES1 201622Z 19007KT 03/M06 A3026 RMK A01 T00271055  RH  054%=      5-min Rain = 0
KES1 201623Z 21007KT 03/M05 A3026 RMK A01 T00281053  RH  055%=      5-min Rain = 0
KES1 201624Z 19006KT 03/M05 A3026 RMK A01 T00291053  RH  055%=      5-min Rain = 0
KES1 201625Z 18008G13KT 03/M05 A3026 RMK A01 T00301051  RH  055%=      5-min Rain = 0
KES1 201626Z 19009KT 03/M05 A3026 RMK A01 T00311053  RH  054%=      5-min Rain = 0
KES1 201627Z 19007KT 03/M05 A3026 RMK A01 T00291054  RH  054%=      5-min Rain = 0
KES1 201628Z 18006KT 03/M05 A3026 RMK A01 T00291053  RH  055%=      5-min Rain = 0
KES1 201629Z 18008KT 03/M05 A3026 RMK A01 T00301051  RH  055%=      5-min Rain = 0
KES1 201630Z 19010KT 03/M05 A3026 RMK A01 T00311052  RH  054%=      5-min Rain = 0
KES1 201631Z 20009KT 03/M05 A3026 RMK A01 T00301053  RH  054%=      5-min Rain = 0
KES1 201632Z 19009KT 03/M05 A3026 RMK A01 T00301053  RH  055%=      5-min Rain = 0
KES1 201633Z 20009KT 03/M05 A3026 RMK A01 T00311052  RH  054%=      5-min Rain = 0
KES1 201634Z 20012KT 03/M05 A3026 RMK A01 T00321053  RH  054%=      5-min Rain = 0
KES1 201635Z 20011KT 03/M05 A3026 RMK A01 T00311053  RH  054%=      5-min Rain = 0
KES1 201636Z 20008KT 03/M05 A3026 RMK A01 T00311053  RH  054%=      5-min Rain = 0
KES1 201637Z 19009KT 03/M05 A3026 RMK A01 T00311053  RH  054%=      5-min Rain = 0
KES1 201638Z 20009KT 03/M05 A3027 RMK A01 T00311054  RH  054%=      5-min Rain = 0
KES1 201639Z 18010KT 03/M05 A3027 RMK A01 T00321054  RH  053%=      5-min Rain = 0
KES1 201640Z 19009KT 03/M06 A3027 RMK A01 T00331056  RH  052%=      5-min Rain = 0
KES1 201641Z 19011KT 03/M06 A3027 RMK A01 T00331058  RH  051%=      5-min Rain = 0
KES1 201642Z 21010KT 03/M06 A3027 RMK A01 T00331058  RH  051%=      5-min Rain = 0
KES1 201643Z 21009KT 03/M06 A3027 RMK A01 T00331057  RH  052%=      5-min Rain = 0
KES1 201644Z 20008KT 03/M06 A3027 RMK A01 T00331057  RH  051%=      5-min Rain = 0
KES1 201645Z 20006KT 03/M06 A3027 RMK A01 T00331056  RH  052%=      5-min Rain = 0
KES1 201646Z 19005KT 04/M05 A3027 RMK A01 T00351054  RH  052%=      5-min Rain = 0
KES1 201647Z 20006KT 04/M05 A3027 RMK A01 T00371052  RH  052%=      5-min Rain = 0
KES1 201648Z 21010KT 04/M05 A3027 RMK A01 T00391053  RH  051%=      5-min Rain = 0
KES1 201649Z 20008KT 04/M05 A3027 RMK A01 T00391054  RH  051%=      5-min Rain = 0
KES1 201650Z 18009KT 04/M05 A3026 RMK A01 T00401053  RH  051%=      5-min Rain = 0
KES1 201651Z 19007KT 04/M05 A3026 RMK A01 T00411053  RH  050%=      5-min Rain = 0
KES1 201652Z 19008KT 04/M05 A3026 RMK A01 T00411053  RH  050%=      5-min Rain = 0
KES1 201653Z 19010KT 04/M05 A3026 RMK A01 T00421053  RH  050%=      5-min Rain = 0
KES1 201654Z 19007KT 04/M05 A3026 RMK A01 T00411054  RH  050%=      5-min Rain = 0
KES1 201655Z 19009KT 04/M05 A3026 RMK A01 T00421052  RH  050%=      5-min Rain = 0
KES1 201656Z 18010KT 04/M05 A3026 RMK A01 T00441052  RH  050%=      5-min Rain = 0
KES1 201657Z 19010KT 04/M05 A3026 RMK A01 T00441053  RH  049%=      5-min Rain = 0
KES1 201658Z 18012KT 04/M05 A3026 RMK A01 T00431054  RH  049%=      5-min Rain = 0
KES1 201659Z 18009KT 04/M05 A3026 RMK A01 T00411054  RH  050%=      5-min Rain = 0
KES1 201700Z 19010KT 04/M05 A3026 RMK A01 T00401054  RH  050%=      5-min Rain = 0
KES1 201701Z 19009KT 04/M06 A3026 RMK A01 T00401055  RH  050%=      5-min Rain = 0
KES1 201702Z 20007KT 04/M05 A3026 RMK A01 T00391054  RH  051%=      5-min Rain = 0
KES1 201703Z 20007KT 04/M05 A3026 RMK A01 T00411051  RH  051%=      5-min Rain = 0
KES1 201704Z 18008KT 04/M05 A3026 RMK A01 T00431051  RH  050%=      5-min Rain = 0
KES1 201705Z 18009KT 04/M05 A3026 RMK A01 T00441052  RH  050%=      5-min Rain = 0
KES1 201706Z 18008KT 04/M05 A3026 RMK A01 T00441052  RH  050%=      5-min Rain = 0
KES1 201707Z 18009KT 05/M05 A3026 RMK A01 T00451052  RH  050%=      5-min Rain = 0
KES1 201708Z 18010KT 04/M06 A3026 RMK A01 T00431055  RH  049%=      5-min Rain = 0
KES1 201709Z 17008KT 04/M06 A3026 RMK A01 T00411055  RH  050%=      5-min Rain = 0
KES1 201710Z 18005KT 04/M05 A3026 RMK A01 T00431053  RH  050%=      5-min Rain = 0
KES1 201711Z 18007KT 05/M05 A3026 RMK A01 T00461050  RH  050%=      5-min Rain = 0
KES1 201712Z 18008KT 05/M05 A3026 RMK A01 T00481050  RH  049%=      5-min Rain = 0
KES1 201713Z 19011KT 05/M05 A3026 RMK A01 T00491052  RH  048%=      5-min Rain = 0
KES1 201714Z 17008G13KT 05/M05 A3026 RMK A01 T00471053  RH  048%=      5-min Rain = 0
KES1 201715Z 18010KT 05/M05 A3025 RMK A01 T00491050  RH  049%=      5-min Rain = 0
KES1 201716Z 20010KT 05/M05 A3025 RMK A01 T00501051  RH  048%=      5-min Rain = 0
KES1 201717Z 20011KT 05/M05 A3025 RMK A01 T00491052  RH  048%=      5-min Rain = 0
KES1 201718Z 19010KT 05/M05 A3025 RMK A01 T00471053  RH  048%=      5-min Rain = 0
KES1 201719Z 19010KT 05/M05 A3025 RMK A01 T00481050  RH  049%=      5-min Rain = 0
KES1 201720Z 19010KT 05/M05 A3025 RMK A01 T00501050  RH  048%=      5-min Rain = 0
KES1 201721Z 18009KT 05/M05 A3025 RMK A01 T00501050  RH  048%=      5-min Rain = 0
KES1 201722Z 18010KT 05/M05 A3025 RMK A01 T00511049  RH  048%=      5-min Rain = 0
KES1 201723Z 18012KT 05/M05 A3024 RMK A01 T00511051  RH  048%=      5-min Rain = 0
KES1 201724Z 17010KT 05/M05 A3024 RMK A01 T00491052  RH  048%=      5-min Rain = 0
KES1 201725Z 17009KT 05/M05 A3024 RMK A01 T00491050  RH  049%=      5-min Rain = 0
KES1 201726Z 17010KT 05/M05 A3024 RMK A01 T00491050  RH  048%=      5-min Rain = 0
KES1 201727Z 18007KT 05/M05 A3024 RMK A01 T00491051  RH  048%=      5-min Rain = 0
KES1 201728Z 19008KT 05/M05 A3024 RMK A01 T00501048  RH  049%=      5-min Rain = 0
KES1 201729Z 19009KT 05/M05 A3024 RMK A01 T00521048  RH  048%=      5-min Rain = 0
KES1 201730Z 17010KT 05/M05 A3024 RMK A01 T00531048  RH  048%=      5-min Rain = 0
KES1 201731Z 18009KT 05/M05 A3024 RMK A01 T00541048  RH  048%=      5-min Rain = 0
KES1 201732Z 18008KT 06/M05 A3024 RMK A01 T00551047  RH  048%=      5-min Rain = 0
KES1 201733Z 18008KT 06/M05 A3024 RMK A01 T00551048  RH  048%=      5-min Rain = 0
KES1 201734Z 19009KT 06/M05 A3024 RMK A01 T00551047  RH  048%=      5-min Rain = 0
KES1 201735Z 20008KT 06/M05 A3024 RMK A01 T00561047  RH  047%=      5-min Rain = 0
KES1 201736Z 18007G12KT 06/M05 A3024 RMK A01 T00561046  RH  048%=      5-min Rain = 0
KES1 201737Z 18008KT 06/M05 A3024 RMK A01 T00581045  RH  048%=      5-min Rain = 0
KES1 201738Z 19009KT 06/M05 A3024 RMK A01 T00581046  RH  047%=      5-min Rain = 0
KES1 201739Z 17007KT 06/M05 A3024 RMK A01 T00581046  RH  047%=      5-min Rain = 0
KES1 201740Z 16009KT 06/M05 A3024 RMK A01 T00591046  RH  047%=      5-min Rain = 0
KES1 201741Z 16010KT 06/M05 A3024 RMK A01 T00591046  RH  047%=      5-min Rain = 0
KES1 201742Z 16009KT 06/M05 A3024 RMK A01 T00571048  RH  047%=      5-min Rain = 0
KES1 201743Z 15008KT 06/M05 A3024 RMK A01 T00561049  RH  047%=      5-min Rain = 0
KES1 201744Z 16009KT 06/M05 A3024 RMK A01 T00551047  RH  048%=      5-min Rain = 0
KES1 201745Z 16009KT 06/M05 A3024 RMK A01 T00561046  RH  048%=      5-min Rain = 0
KES1 201746Z 15009KT 06/M05 A3023 RMK A01 T00571047  RH  047%=      5-min Rain = 0
KES1 201747Z 16007KT 06/M05 A3023 RMK A01 T00571046  RH  047%=      5-min Rain = 0
KES1 201748Z 19007KT 06/M05 A3023 RMK A01 T00591045  RH  047%=      5-min Rain = 0
KES1 201749Z 17008KT 06/M05 A3023 RMK A01 T00601045  RH  047%=      5-min Rain = 0
KES1 201750Z 17008KT 06/M04 A3023 RMK A01 T00611044  RH  047%=      5-min Rain = 0
KES1 201751Z 16007KT 06/M04 A3023 RMK A01 T00621044  RH  046%=      5-min Rain = 0
KES1 201752Z 15008KT 06/M04 A3023 RMK A01 T00641043  RH  046%=      5-min Rain = 0
KES1 201753Z 17004KT 07/M04 A3023 RMK A01 T00661043  RH  046%=      5-min Rain = 0
KES1 201754Z 17008KT 07/M04 A3023 RMK A01 T00661043  RH  045%=      5-min Rain = 0
KES1 201755Z 18010KT 07/M04 A3023 RMK A01 T00661044  RH  045%=      5-min Rain = 0
KES1 201756Z 18009KT 06/M05 A3023 RMK A01 T00641047  RH  045%=      5-min Rain = 0
KES1 201757Z 17006KT 06/M05 A3023 RMK A01 T00621046  RH  046%=      5-min Rain = 0
KES1 201758Z 18010KT 07/M04 A3023 RMK A01 T00651043  RH  046%=      5-min Rain = 0
KES1 201759Z 17006KT 07/M04 A3023 RMK A01 T00661044  RH  045%=      5-min Rain = 0
KES1 201800Z 16007KT 07/M04 A3023 RMK A01 T00681043  RH  045%=      5-min Rain = 0
KES1 201801Z 19007KT 07/M05 A3023 RMK A01 T00681045  RH  044%=      5-min Rain = 0
KES1 201802Z 17006KT 07/M05 A3023 RMK A01 T00671045  RH  045%=      5-min Rain = 0
KES1 201803Z 17009KT 07/M04 A3023 RMK A01 T00671044  RH  045%=      5-min Rain = 0
KES1 201804Z 17010KT 07/M05 A3023 RMK A01 T00671045  RH  045%=      5-min Rain = 0
KES1 201805Z 18006G11KT 07/M05 A3023 RMK A01 T00681045  RH  045%=      5-min Rain = 0
KES1 201806Z 18010KT 07/M04 A3023 RMK A01 T00691044  RH  044%=      5-min Rain = 0
KES1 201807Z 19009KT 07/M05 A3023 RMK A01 T00691045  RH  044%=      5-min Rain = 0
KES1 201808Z 17008KT 07/M04 A3023 RMK A01 T00691044  RH  044%=      5-min Rain = 0
KES1 201809Z 16010KT 07/M04 A3022 RMK A01 T00701044  RH  044%=      5-min Rain = 0
KES1 201810Z 18011KT 07/M04 A3022 RMK A01 T00711044  RH  044%=      5-min Rain = 0
KES1 201811Z 18010KT 07/M04 A3022 RMK A01 T00711044  RH  044%=      5-min Rain = 0
KES1 201812Z 17009KT 07/M04 A3022 RMK A01 T00711044  RH  044%=      5-min Rain = 0
KES1 201813Z 16008KT 07/M04 A3022 RMK A01 T00711044  RH  044%=      5-min Rain = 0
KES1 201814Z 17009KT 07/M04 A3022 RMK A01 T00711044  RH  044%=      5-min Rain = 0
KES1 201815Z 18009KT 07/M04 A3022 RMK A01 T00711044  RH  044%=      5-min Rain = 0
KES1 201816Z 17007KT 07/M04 A3022 RMK A01 T00711044  RH  044%=      5-min Rain = 0
KES1 201817Z 16008KT 07/M04 A3022 RMK A01 T00731041  RH  044%=      5-min Rain = 0
KES1 201818Z 17009KT 08/M04 A3022 RMK A01 T00751041  RH  044%=      5-min Rain = 0
KES1 201819Z 18007KT 08/M04 A3022 RMK A01 T00771041  RH  043%=      5-min Rain = 0
KES1 201820Z 16006KT 08/M04 A3022 RMK A01 T00771042  RH  043%=      5-min Rain = 0
KES1 201821Z 17009KT 08/M04 A3022 RMK A01 T00771040  RH  043%=      5-min Rain = 0
KES1 201822Z 17010KT 08/M04 A3022 RMK A01 T00781042  RH  042%=      5-min Rain = 0
KES1 201823Z 18009KT 08/M04 A3022 RMK A01 T00751044  RH  042%=      5-min Rain = 0
KES1 201824Z 15009KT 07/M04 A3021 RMK A01 T00741044  RH  043%=      5-min Rain = 0
KES1 201825Z 15011KT 08/M04 A3021 RMK A01 T00751042  RH  043%=      5-min Rain = 0
KES1 201826Z 16011KT 08/M04 A3021 RMK A01 T00771041  RH  043%=      5-min Rain = 0
KES1 201827Z 16012KT 08/M04 A3021 RMK A01 T00781042  RH  042%=      5-min Rain = 0
KES1 201828Z 16008KT 08/M04 A302 RMK A01 T00801042  RH  042%=      5-min Rain = 0
KES1 201829Z 18009KT 08/M04 A302 RMK A01 T00801042  RH  042%=      5-min Rain = 0
KES1 201830Z 17010KT 08/M04 A302 RMK A01 T00821040  RH  042%=      5-min Rain = 0
KES1 201831Z 16010KT 08/M04 A302 RMK A01 T00831040  RH  041%=      5-min Rain = 0
KES1 201832Z 16010KT 08/M04 A302 RMK A01 T00831042  RH  041%=      5-min Rain = 0
KES1 201833Z 17009KT 08/M04 A302 RMK A01 T00821042  RH  041%=      5-min Rain = 0
KES1 201834Z 17007KT 08/M04 A302 RMK A01 T00831041  RH  041%=      5-min Rain = 0
KES1 201835Z 18009KT 09/M04 A3019 RMK A01 T00851039  RH  041%=      5-min Rain = 0
KES1 201836Z 18009KT 09/M04 A3019 RMK A01 T00871039  RH  041%=      5-min Rain = 0
KES1 201837Z 17011KT 09/M04 A3019 RMK A01 T00891040  RH  040%=      5-min Rain = 0
KES1 201838Z 17008KT 09/M04 A3019 RMK A01 T00891040  RH  040%=      5-min Rain = 0
KES1 201839Z 17008KT 09/M04 A3019 RMK A01 T00901039  RH  040%=      5-min Rain = 0
KES1 201840Z 17006KT 09/M04 A3019 RMK A01 T00931037  RH  040%=      5-min Rain = 0
KES1 201841Z 17009KT 10/M04 A3019 RMK A01 T00961035  RH  040%=      5-min Rain = 0
KES1 201842Z 18007KT 10/M04 A3018 RMK A01 T00981037  RH  038%=      5-min Rain = 0
KES1 201843Z 16011KT 10/M04 A3018 RMK A01 T00971037  RH  038%=      5-min Rain = 0
KES1 201844Z 15012KT 10/M04 A3018 RMK A01 T00971039  RH  038%=      5-min Rain = 0
KES1 201845Z 17011KT 10/M04 A3018 RMK A01 T00971039  RH  038%=      5-min Rain = 0
KES1 201846Z 18011KT 10/M04 A3018 RMK A01 T00971039  RH  038%=      5-min Rain = 0
KES1 201847Z 18010KT 10/M04 A3018 RMK A01 T00971038  RH  038%=      5-min Rain = 0
KES1 201848Z 16009KT 10/M04 A3018 RMK A01 T00981039  RH  038%=      5-min Rain = 0
KES1 201849Z 16010G15KT 10/M04 A3018 RMK A01 T00991039  RH  038%=      5-min Rain = 0
KES1 201850Z 16008G14KT 10/M04 A3018 RMK A01 T00991038  RH  038%=      5-min Rain = 0
KES1 201851Z 16009G14KT 10/M04 A3018 RMK A01 T01001038  RH  038%=      5-min Rain = 0
KES1 201852Z 17009KT 10/M03 A3018 RMK A01 T01031034  RH  038%=      5-min Rain = 0
KES1 201853Z 17010KT 11/M04 A3018 RMK A01 T01061035  RH  037%=      5-min Rain = 0
KES1 201854Z 17009KT 11/M04 A3018 RMK A01 T01061037  RH  036%=      5-min Rain = 0
KES1 201855Z 17010KT 11/M04 A3018 RMK A01 T01051037  RH  037%=      5-min Rain = 0
KES1 201856Z 18009KT 11/M04 A3018 RMK A01 T01051036  RH  037%=      5-min Rain = 0
KES1 201857Z 18009KT 11/M04 A3018 RMK A01 T01061036  RH  037%=      5-min Rain = 0
KES1 201858Z 17011G16KT 11/M04 A3018 RMK A01 T01061035  RH  037%=      5-min Rain = 0
KES1 201859Z 17012KT 11/M04 A3018 RMK A01 T01071036  RH  036%=      5-min Rain = 0
KES1 201900Z 18011KT 11/M04 A3018 RMK A01 T01061037  RH  036%=      5-min Rain = 0
KES1 201901Z 18011KT 11/M04 A3018 RMK A01 T01061037  RH  037%=      5-min Rain = 0
KES1 201902Z 17009KT 11/M04 A3018 RMK A01 T01061037  RH  036%=      5-min Rain = 0
KES1 201903Z 17011KT 11/M04 A3018 RMK A01 T01071036  RH  037%=      5-min Rain = 0
KES1 201904Z 16011KT 11/M04 A3018 RMK A01 T01071037  RH  036%=      5-min Rain = 0
KES1 201905Z 16009KT 11/M04 A3018 RMK A01 T01071036  RH  036%=      5-min Rain = 0
KES1 201906Z 18008KT 11/M04 A3018 RMK A01 T01091035  RH  036%=      5-min Rain = 0
KES1 201907Z 16011G16KT 11/M03 A3017 RMK A01 T01111034  RH  036%=      5-min Rain = 0
KES1 201908Z 16012KT 11/M04 A3017 RMK A01 T01121036  RH  035%=      5-min Rain = 0
KES1 201909Z 16008KT 11/M04 A3017 RMK A01 T01111037  RH  035%=      5-min Rain = 0
KES1 201910Z 16009G14KT 11/M03 A3017 RMK A01 T01111033  RH  036%=      5-min Rain = 0
KES1 201911Z 16013KT 11/M04 A3017 RMK A01 T01131035  RH  035%=      5-min Rain = 0
KES1 201912Z 16009KT 11/M04 A3017 RMK A01 T01131035  RH  035%=      5-min Rain = 0
KES1 201913Z 16011KT 11/M04 A3017 RMK A01 T01131035  RH  035%=      5-min Rain = 0
KES1 201914Z 17010KT 11/M03 A3017 RMK A01 T01131034  RH  036%=      5-min Rain = 0
KES1 201915Z 17012KT 11/M03 A3017 RMK A01 T01141034  RH  035%=      5-min Rain = 0
KES1 201916Z 17009KT 12/M03 A3017 RMK A01 T01151034  RH  035%=      5-min Rain = 0
KES1 201917Z 17008G14KT 12/M03 A3017 RMK A01 T01171032  RH  035%=      5-min Rain = 0
KES1 201918Z 17010KT 12/M03 A3017 RMK A01 T01191034  RH  034%=      5-min Rain = 0
KES1 201919Z 17008KT 12/M03 A3016 RMK A01 T01181033  RH  035%=      5-min Rain = 0
KES1 201920Z 16010KT 12/M03 A3016 RMK A01 T01181033  RH  035%=      5-min Rain = 0
KES1 201921Z 17012KT 12/M03 A3016 RMK A01 T01191033  RH  034%=      5-min Rain = 0
KES1 201922Z 18012KT 12/M03 A3016 RMK A01 T01191033  RH  034%=      5-min Rain = 0
KES1 201923Z 18010KT 12/M03 A3016 RMK A01 T01201033  RH  034%=      5-min Rain = 0
KES1 201924Z 20011KT 12/M03 A3016 RMK A01 T01191034  RH  034%=      5-min Rain = 0
KES1 201925Z 18009KT 12/M04 A3016 RMK A01 T01171035  RH  034%=      5-min Rain = 0
KES1 201926Z 16009KT 12/M03 A3016 RMK A01 T01171034  RH  035%=      5-min Rain = 0
KES1 201927Z 16011KT 12/M03 A3015 RMK A01 T01181033  RH  035%=      5-min Rain = 0
KES1 201928Z 16010KT 12/M03 A3015 RMK A01 T01181034  RH  034%=      5-min Rain = 0
KES1 201929Z 17008KT 12/M03 A3015 RMK A01 T01181033  RH  035%=      5-min Rain = 0
KES1 201930Z 18009KT 12/M03 A3015 RMK A01 T01191032  RH  035%=      5-min Rain = 0
KES1 201931Z 18009KT 12/M03 A3015 RMK A01 T01201033  RH  034%=      5-min Rain = 0
KES1 201932Z 17006KT 12/M03 A3015 RMK A01 T01201033  RH  034%=      5-min Rain = 0
KES1 201933Z 17010KT 12/M03 A3015 RMK A01 T01211032  RH  034%=      5-min Rain = 0
KES1 201934Z 17007KT 12/M03 A3015 RMK A01 T01221033  RH  034%=      5-min Rain = 0
KES1 201935Z 16010KT 12/M03 A3015 RMK A01 T01221032  RH  034%=      5-min Rain = 0
KES1 201936Z 15010KT 12/M03 A3015 RMK A01 T01221033  RH  034%=      5-min Rain = 0
KES1 201937Z 16011KT 12/M03 A3015 RMK A01 T01211032  RH  034%=      5-min Rain = 0
KES1 201938Z 16008KT 12/M03 A3015 RMK A01 T01241030  RH  034%=      5-min Rain = 0
KES1 201939Z 17008KT 13/M03 A3015 RMK A01 T01251030  RH  034%=      5-min Rain = 0
KES1 201940Z 15011KT 13/M03 A3015 RMK A01 T01281028  RH  034%=      5-min Rain = 0
KES1 201941Z 16009KT 13/M03 A3014 RMK A01 T01281029  RH  033%=      5-min Rain = 0
KES1 201942Z 15010KT 13/M03 A3014 RMK A01 T01281029  RH  033%=      5-min Rain = 0
KES1 201943Z 16010KT 13/M03 A3014 RMK A01 T01291029  RH  033%=      5-min Rain = 0
KES1 201944Z 17008KT 13/M03 A3014 RMK A01 T01291029  RH  033%=      5-min Rain = 0
KES1 201945Z 17009KT 13/M03 A3014 RMK A01 T01301029  RH  033%=      5-min Rain = 0
KES1 201946Z 17010KT 13/M03 A3014 RMK A01 T01311029  RH  033%=      5-min Rain = 0
KES1 201947Z 14011KT 13/M03 A3014 RMK A01 T01311030  RH  033%=      5-min Rain = 0
KES1 201948Z 14010KT 13/M03 A3014 RMK A01 T01321029  RH  033%=      5-min Rain = 0
KES1 201949Z 14014KT 13/M03 A3013 RMK A01 T01301031  RH  032%=      5-min Rain = 0
KES1 201950Z 15012KT 13/M03 A3013 RMK A01 T01281032  RH  033%=      5-min Rain = 0
KES1 201951Z 18012KT 13/M03 A3013 RMK A01 T01271032  RH  033%=      5-min Rain = 0
KES1 201952Z 16011KT 13/M03 A3013 RMK A01 T01251032  RH  033%=      5-min Rain = 0
KES1 201953Z 14009KT 12/M03 A3013 RMK A01 T01241032  RH  034%=      5-min Rain = 0
KES1 201954Z 15008KT 12/M03 A3013 RMK A01 T01241031  RH  034%=      5-min Rain = 0
KES1 201955Z 15011KT 13/M03 A3013 RMK A01 T01261030  RH  034%=      5-min Rain = 0
KES1 201956Z 17011KT 13/M03 A3013 RMK A01 T01271031  RH  033%=      5-min Rain = 0
KES1 201957Z 16011KT 13/M03 A3013 RMK A01 T01271031  RH  033%=      5-min Rain = 0
KES1 201958Z 16012KT 13/M03 A3013 RMK A01 T01281031  RH  033%=      5-min Rain = 0
KES1 201959Z 16010KT 13/M03 A3013 RMK A01 T01281031  RH  033%=      5-min Rain = 0
KES1 202000Z 16013KT 13/M03 A3013 RMK A01 T01281031  RH  033%=      5-min Rain = 0
KES1 202001Z 16010KT 13/M03 A3013 RMK A01 T01281031  RH  033%=      5-min Rain = 0
KES1 202002Z 16012KT 13/M03 A3013 RMK A01 T01301029  RH  033%=      5-min Rain = 0
KES1 202003Z 16010KT 13/M03 A3013 RMK A01 T01301031  RH  033%=      5-min Rain = 0
KES1 202004Z 15010KT 13/M03 A3013 RMK A01 T01291031  RH  033%=      5-min Rain = 0
KES1 202005Z 15010KT 13/M03 A3013 RMK A01 T01281031  RH  033%=      5-min Rain = 0
KES1 202006Z 15008KT 13/M03 A3013 RMK A01 T01281030  RH  033%=      5-min Rain = 0
KES1 202007Z 15010KT 13/M03 A3012 RMK A01 T01291029  RH  033%=      5-min Rain = 0
KES1 202008Z 15012KT 13/M03 A3012 RMK A01 T01301029  RH  033%=      5-min Rain = 0
KES1 202009Z 15012KT 13/M03 A3012 RMK A01 T01301030  RH  033%=      5-min Rain = 0
KES1 202010Z 17009KT 13/M03 A3012 RMK A01 T01301029  RH  033%=      5-min Rain = 0
KES1 202011Z 14011KT 13/M03 A3012 RMK A01 T01331028  RH  033%=      5-min Rain = 0
KES1 202012Z 15014KT 14/M03 A3012 RMK A01 T01351028  RH  032%=      5-min Rain = 0
KES1 202013Z 14012KT 14/M03 A3012 RMK A01 T01361029  RH  032%=      5-min Rain = 0
KES1 202014Z 14012KT 14/M03 A3012 RMK A01 T01351029  RH  032%=      5-min Rain = 0
KES1 202015Z 15012G17KT 14/M03 A3012 RMK A01 T01371027  RH  032%=      5-min Rain = 0
KES1 202016Z 14013KT 14/M03 A3012 RMK A01 T01391029  RH  031%=      5-min Rain = 0
KES1 202017Z 14013KT 14/M03 A3012 RMK A01 T01351032  RH  031%=      5-min Rain = 0
KES1 202018Z 15012KT 13/M03 A3011 RMK A01 T01341030  RH  032%=      5-min Rain = 0
KES1 202019Z 15011G17KT 14/M03 A3011 RMK A01 T01351029  RH  032%=      5-min Rain = 0
KES1 202020Z 16013G18KT 14/M03 A3011 RMK A01 T01361029  RH  032%=      5-min Rain = 0
KES1 202021Z 17011KT 14/M03 A3011 RMK A01 T01361029  RH  032%=      5-min Rain = 0
KES1 202022Z 17011KT 14/M03 A3011 RMK A01 T01361029  RH  032%=      5-min Rain = 0
KES1 202023Z 17010KT 14/M03 A3011 RMK A01 T01361030  RH  032%=      5-min Rain = 0
KES1 202024Z 18009KT 14/M03 A3011 RMK A01 T01351031  RH  032%=      5-min Rain = 0
KES1 202025Z 17010KT 13/M03 A3011 RMK A01 T01331030  RH  032%=      5-min Rain = 0
KES1 202026Z 16012KT 13/M03 A3011 RMK A01 T01331030  RH  032%=      5-min Rain = 0
KES1 202027Z 16010KT 13/M03 A3011 RMK A01 T01321030  RH  032%=      5-min Rain = 0
KES1 202028Z 14013KT 13/M03 A3011 RMK A01 T01341028  RH  032%=      5-min Rain = 0
KES1 202029Z 15012KT 13/M03 A3011 RMK A01 T01341031  RH  032%=      5-min Rain = 0
KES1 202030Z 16009KT 13/M03 A3011 RMK A01 T01341029  RH  032%=      5-min Rain = 0
KES1 202031Z 15012KT 14/M03 A3011 RMK A01 T01371028  RH  032%=      5-min Rain = 0
KES1 202032Z 15011KT 14/M03 A3011 RMK A01 T01381028  RH  031%=      5-min Rain = 0
KES1 202033Z 15011KT 14/M03 A3011 RMK A01 T01391028  RH  031%=      5-min Rain = 0
KES1 202034Z 14011KT 14/M03 A3011 RMK A01 T01391029  RH  031%=      5-min Rain = 0
KES1 202035Z 16011KT 14/M03 A3011 RMK A01 T01391027  RH  031%=      5-min Rain = 0
KES1 202036Z 15010KT 14/M03 A3011 RMK A01 T01401029  RH  031%=      5-min Rain = 0
KES1 202037Z 16009G14KT 14/M03 A3011 RMK A01 T01391029  RH  031%=      5-min Rain = 0
KES1 202038Z 16011KT 14/M03 A3011 RMK A01 T01391028  RH  031%=      5-min Rain = 0
KES1 202039Z 16010KT 14/M03 A301 RMK A01 T01391030  RH  031%=      5-min Rain = 0
KES1 202040Z 17010KT 14/M03 A301 RMK A01 T01371030  RH  031%=      5-min Rain = 0
KES1 202041Z 17010G15KT 14/M03 A301 RMK A01 T01361029  RH  032%=      5-min Rain = 0
KES1 202042Z 16009G14KT 14/M03 A301 RMK A01 T01361029  RH  032%=      5-min Rain = 0
KES1 202043Z 15011KT 14/M03 A301 RMK A01 T01351029  RH  032%=      5-min Rain = 0
KES1 202044Z 15011KT 14/M03 A301 RMK A01 T01351030  RH  032%=      5-min Rain = 0
KES1 202045Z 15013G18KT 13/M03 A301 RMK A01 T01341030  RH  032%=      5-min Rain = 0
KES1 202046Z 16009KT 13/M03 A301 RMK A01 T01341030  RH  032%=      5-min Rain = 0
KES1 202047Z 17009KT 13/M03 A301 RMK A01 T01341029  RH  032%=      5-min Rain = 0
KES1 202048Z 16010KT 14/M03 A301 RMK A01 T01351029  RH  032%=      5-min Rain = 0
KES1 202049Z 17011KT 14/M03 A301 RMK A01 T01361028  RH  032%=      5-min Rain = 0
KES1 202050Z 17010KT 14/M03 A301 RMK A01 T01371029  RH  032%=      5-min Rain = 0
KES1 202051Z 17011KT 14/M03 A301 RMK A01 T01371029  RH  032%=      5-min Rain = 0
KES1 202052Z 17012KT 14/M03 A301 RMK A01 T01371029  RH  032%=      5-min Rain = 0
KES1 202053Z 17008KT 14/M03 A301 RMK A01 T01381028  RH  031%=      5-min Rain = 0
KES1 202054Z 16008KT 14/M03 A301 RMK A01 T01391028  RH  031%=      5-min Rain = 0
KES1 202055Z 15011KT 14/M03 A301 RMK A01 T01411027  RH  031%=      5-min Rain = 0
KES1 202056Z 16009KT 14/M03 A301 RMK A01 T01421027  RH  031%=      5-min Rain = 0
KES1 202057Z 17009KT 14/M03 A301 RMK A01 T01441026  RH  031%=      5-min Rain = 0
KES1 202058Z 15009KT 15/M03 A301 RMK A01 T01451027  RH  030%=      5-min Rain = 0
KES1 202059Z 15010KT 14/M03 A3009 RMK A01 T01441027  RH  031%=      5-min Rain = 0
KES1 202100Z 16012KT 15/M03 A301 RMK A01 T01451027  RH  030%=      5-min Rain = 0
KES1 202101Z 16013KT 14/M03 A301 RMK A01 T01431029  RH  030%=      5-min Rain = 0
KES1 202102Z 16011KT 14/M03 A301 RMK A01 T01421029  RH  031%=      5-min Rain = 0
KES1 202103Z 17010KT 14/M03 A301 RMK A01 T01411029  RH  031%=      5-min Rain = 0
KES1 202104Z 15010KT 14/M03 A3009 RMK A01 T01411028  RH  031%=      5-min Rain = 0
KES1 202105Z 16012KT 14/M03 A3009 RMK A01 T01411027  RH  031%=      5-min Rain = 0
KES1 202106Z 16012KT 14/M03 A3009 RMK A01 T01401029  RH  031%=      5-min Rain = 0
KES1 202107Z 16012KT 14/M03 A3009 RMK A01 T01381030  RH  031%=      5-min Rain = 0
KES1 202108Z 17011KT 14/M03 A3009 RMK A01 T01371030  RH  031%=      5-min Rain = 0
KES1 202109Z 18011KT 14/M03 A3009 RMK A01 T01361029  RH  032%=      5-min Rain = 0
KES1 202110Z 16008G13KT 14/M03 A3009 RMK A01 T01371028  RH  032%=      5-min Rain = 0
KES1 202111Z 16013KT 14/M03 A3009 RMK A01 T01381028  RH  032%=      5-min Rain = 0
KES1 202112Z 16010KT 14/M03 A3009 RMK A01 T01381029  RH  031%=      5-min Rain = 0
KES1 202113Z 16013KT 14/M03 A3008 RMK A01 T01371028  RH  032%=      5-min Rain = 0
KES1 202114Z 16010KT 14/M03 A3008 RMK A01 T01371029  RH  032%=      5-min Rain = 0
KES1 202115Z 16012KT 14/M03 A3008 RMK A01 T01371029  RH  032%=      5-min Rain = 0
KES1 202116Z 16009KT 14/M03 A3008 RMK A01 T01371028  RH  032%=      5-min Rain = 0
KES1 202117Z 15010KT 14/M03 A3008 RMK A01 T01391026  RH  032%=      5-min Rain = 0
KES1 202118Z 16008KT 14/M03 A3008 RMK A01 T01421026  RH  031%=      5-min Rain = 0
KES1 202119Z 17012KT 15/M03 A3008 RMK A01 T01451025  RH  031%=      5-min Rain = 0
KES1 202120Z 16010KT 15/M03 A3008 RMK A01 T01451026  RH  030%=      5-min Rain = 0
KES1 202121Z 16013KT 15/M03 A3008 RMK A01 T01461026  RH  030%=      5-min Rain = 0
KES1 202122Z 16012KT 15/M03 A3008 RMK A01 T01461028  RH  030%=      5-min Rain = 0
KES1 202123Z 16012KT 15/M03 A3008 RMK A01 T01451028  RH  030%=      5-min Rain = 0
KES1 202124Z 16011G16KT 14/M03 A3008 RMK A01 T01441028  RH  030%=      5-min Rain = 0
KES1 202125Z 16015KT 14/M03 A3008 RMK A01 T01431029  RH  030%=      5-min Rain = 0
KES1 202126Z 15013KT 14/M03 A3008 RMK A01 T01421030  RH  030%=      5-min Rain = 0
KES1 202127Z 16013KT 14/M03 A3008 RMK A01 T01421029  RH  030%=      5-min Rain = 0
KES1 202128Z 16012KT 14/M03 A3008 RMK A01 T01431029  RH  030%=      5-min Rain = 0
KES1 202129Z 16013KT 14/M03 A3008 RMK A01 T01441029  RH  030%=      5-min Rain = 0
KES1 202130Z 17011KT 14/M03 A3008 RMK A01 T01441029  RH  030%=      5-min Rain = 0
KES1 202131Z 15010KT 15/M03 A3008 RMK A01 T01451028  RH  030%=      5-min Rain = 0
KES1 202132Z 16009KT 15/M02 A3008 RMK A01 T01501024  RH  030%=      5-min Rain = 0
KES1 202133Z 17009KT 15/M02 A3008 RMK A01 T01531024  RH  030%=      5-min Rain = 0
KES1 202134Z 16010KT 15/M03 A3008 RMK A01 T01531027  RH  029%=      5-min Rain = 0
KES1 202135Z 16011KT 15/M03 A3008 RMK A01 T01521027  RH  029%=      5-min Rain = 0
KES1 202136Z 18010KT 15/M03 A3008 RMK A01 T01531026  RH  029%=      5-min Rain = 0
KES1 202137Z 16011KT 16/M03 A3008 RMK A01 T01551026  RH  029%=      5-min Rain = 0
KES1 202138Z 15012KT 15/M03 A3008 RMK A01 T01541029  RH  028%=      5-min Rain = 0
KES1 202139Z 16011KT 15/M03 A3008 RMK A01 T01521028  RH  029%=      5-min Rain = 0
KES1 202140Z 18012KT 15/M03 A3008 RMK A01 T01501029  RH  029%=      5-min Rain = 0
KES1 202141Z 16012KT 15/M03 A3007 RMK A01 T01481030  RH  029%=      5-min Rain = 0
KES1 202142Z 17012KT 15/M03 A3007 RMK A01 T01461030  RH  029%=      5-min Rain = 0
KES1 202143Z 17009KT 15/M03 A3007 RMK A01 T01451030  RH  030%=      5-min Rain = 0
KES1 202144Z 18011KT 15/M03 A3007 RMK A01 T01451029  RH  030%=      5-min Rain = 0
KES1 202145Z 18011KT 14/M03 A3007 RMK A01 T01441031  RH  030%=      5-min Rain = 0
KES1 202146Z 17008KT 14/M03 A3007 RMK A01 T01421032  RH  030%=      5-min Rain = 0
KES1 202147Z 16009KT 14/M03 A3007 RMK A01 T01421030  RH  030%=      5-min Rain = 0
KES1 202148Z 16011KT 14/M03 A3007 RMK A01 T01431030  RH  030%=      5-min Rain = 0
KES1 202149Z 17010KT 14/M03 A3007 RMK A01 T01431030  RH  030%=      5-min Rain = 0
KES1 202150Z 16012KT 14/M03 A3007 RMK A01 T01421030  RH  030%=      5-min Rain = 0
KES1 202151Z 15012KT 14/M03 A3007 RMK A01 T01421030  RH  030%=      5-min Rain = 0
KES1 202152Z 16011KT 14/M03 A3007 RMK A01 T01411030  RH  030%=      5-min Rain = 0
KES1 202153Z 17011KT 14/M03 A3007 RMK A01 T01401030  RH  031%=      5-min Rain = 0
KES1 202154Z 16012KT 14/M03 A3008 RMK A01 T01391030  RH  031%=      5-min Rain = 0
KES1 202155Z 16010KT 14/M03 A3008 RMK A01 T01381030  RH  031%=      5-min Rain = 0
KES1 202156Z 17011KT 14/M03 A3008 RMK A01 T01371030  RH  031%=      5-min Rain = 0
KES1 202157Z 16011KT 14/M03 A3008 RMK A01 T01371030  RH  031%=      5-min Rain = 0
KES1 202158Z 15010KT 14/M03 A3008 RMK A01 T01361029  RH  032%=      5-min Rain = 0
KES1 202159Z 15011KT 14/M03 A3008 RMK A01 T01371028  RH  032%=      5-min Rain = 0
KES1 202200Z 14010KT 14/M03 A3008 RMK A01 T01361029  RH  032%=      5-min Rain = 0
KES1 202201Z 15012KT 14/M03 A3008 RMK A01 T01371027  RH  032%=      5-min Rain = 0
KES1 202202Z 15013KT 14/M03 A3008 RMK A01 T01371027  RH  032%=      5-min Rain = 0
KES1 202203Z 15012KT 14/M03 A3008 RMK A01 T01371027  RH  032%=      5-min Rain = 0
KES1 202204Z 15009KT 14/M03 A3008 RMK A01 T01371027  RH  032%=      5-min Rain = 0
KES1 202205Z 15009KT 14/M03 A3008 RMK A01 T01371027  RH  032%=      5-min Rain = 0
KES1 202206Z 14010KT 14/M03 A3007 RMK A01 T01371027  RH  032%=      5-min Rain = 0
KES1 202207Z 14011KT 14/M03 A3007 RMK A01 T01371027  RH  032%=      5-min Rain = 0
KES1 202208Z 13009KT 14/M03 A3007 RMK A01 T01361027  RH  032%=      5-min Rain = 0
KES1 202209Z 14009KT 14/M03 A3008 RMK A01 T01361026  RH  032%=      5-min Rain = 0
KES1 202210Z 15009KT 14/M03 A3008 RMK A01 T01371025  RH  033%=      5-min Rain = 0
KES1 202211Z 15009KT 14/M03 A3008 RMK A01 T01371025  RH  032%=      5-min Rain = 0
KES1 202212Z 14009KT 14/M02 A3008 RMK A01 T01381024  RH  032%=      5-min Rain = 0
KES1 202213Z 14010KT 14/M02 A3008 RMK A01 T01381024  RH  032%=      5-min Rain = 0
KES1 202214Z 14009KT 14/M02 A3007 RMK A01 T01391024  RH  032%=      5-min Rain = 0
KES1 202215Z 14009KT 14/M02 A3007 RMK A01 T01391024  RH  032%=      5-min Rain = 0
KES1 202216Z 13010KT 14/M02 A3007 RMK A01 T01401023  RH  032%=      5-min Rain = 0
KES1 202217Z 14011KT 14/M02 A3007 RMK A01 T01401024  RH  032%=      5-min Rain = 0
KES1 202218Z 14010KT 14/M03 A3007 RMK A01 T01391025  RH  032%=      5-min Rain = 0
KES1 202219Z 14011KT 14/M02 A3007 RMK A01 T01391024  RH  032%=      5-min Rain = 0
KES1 202220Z 15009KT 14/M02 A3007 RMK A01 T01391024  RH  032%=      5-min Rain = 0
KES1 202221Z 15009KT 14/M02 A3007 RMK A01 T01391024  RH  032%=      5-min Rain = 0
KES1 202222Z 14011KT 14/M02 A3007 RMK A01 T01411022  RH  032%=      5-min Rain = 0
KES1 202223Z 14009KT 14/M02 A3007 RMK A01 T01421024  RH  032%=      5-min Rain = 0
KES1 202224Z 14011KT 14/M02 A3007 RMK A01 T01421023  RH  032%=      5-min Rain = 0
KES1 202225Z 14011KT 14/M02 A3007 RMK A01 T01421023  RH  032%=      5-min Rain = 0
KES1 202226Z 15010KT 14/M02 A3007 RMK A01 T01421023  RH  032%=      5-min Rain = 0
KES1 202227Z 14010KT 14/M02 A3007 RMK A01 T01431022  RH  032%=      5-min Rain = 0
KES1 202228Z 14010KT 14/M02 A3007 RMK A01 T01431022  RH  032%=      5-min Rain = 0
KES1 202229Z 15008KT 14/M02 A3007 RMK A01 T01441022  RH  032%=      5-min Rain = 0
KES1 202230Z 16011KT 14/M02 A3007 RMK A01 T01441023  RH  032%=      5-min Rain = 0
KES1 202231Z 15013KT 14/M03 A3007 RMK A01 T01441025  RH  031%=      5-min Rain = 0
KES1 202232Z 15014KT 14/M03 A3007 RMK A01 T01421028  RH  031%=      5-min Rain = 0
KES1 202233Z 16012KT 14/M03 A3007 RMK A01 T01411029  RH  031%=      5-min Rain = 0
KES1 202234Z 16010KT 14/M03 A3007 RMK A01 T01411028  RH  031%=      5-min Rain = 0
KES1 202235Z 16010KT 14/M03 A3007 RMK A01 T01411028  RH  031%=      5-min Rain = 0
KES1 202236Z 17012KT 14/M03 A3007 RMK A01 T01411027  RH  031%=      5-min Rain = 0
KES1 202237Z 16011KT 14/M03 A3007 RMK A01 T01411028  RH  031%=      5-min Rain = 0
KES1 202238Z 17011KT 14/M03 A3007 RMK A01 T01411028  RH  031%=      5-min Rain = 0
KES1 202239Z 17009KT 14/M03 A3007 RMK A01 T01401028  RH  031%=      5-min Rain = 0
KES1 202240Z 16007KT 14/M03 A3007 RMK A01 T01401027  RH  031%=      5-min Rain = 0
KES1 202241Z 16007KT 14/M03 A3007 RMK A01 T01401026  RH  032%=      5-min Rain = 0
KES1 202242Z 16009KT 14/M02 A3007 RMK A01 T01401024  RH  032%=      5-min Rain = 0
KES1 202243Z 15011KT 14/M02 A3007 RMK A01 T01391024  RH  032%=      5-min Rain = 0
KES1 202244Z 15012KT 14/M02 A3007 RMK A01 T01391024  RH  032%=      5-min Rain = 0
KES1 202245Z 15009KT 14/M02 A3007 RMK A01 T01381024  RH  033%=      5-min Rain = 0
KES1 202246Z 15010KT 14/M02 A3007 RMK A01 T01371023  RH  033%=      5-min Rain = 0
KES1 202247Z 15011KT 14/M02 A3007 RMK A01 T01371024  RH  033%=      5-min Rain = 0
KES1 202248Z 15012KT 14/M02 A3007 RMK A01 T01371024  RH  033%=      5-min Rain = 0
KES1 202249Z 15013KT 14/M02 A3007 RMK A01 T01361024  RH  033%=      5-min Rain = 0
KES1 202250Z 14010KT 14/M02 A3007 RMK A01 T01361024  RH  033%=      5-min Rain = 0
KES1 202251Z 15012KT 14/M02 A3007 RMK A01 T01361024  RH  033%=      5-min Rain = 0
KES1 202252Z 15012KT 14/M02 A3007 RMK A01 T01371024  RH  033%=      5-min Rain = 0
KES1 202253Z 15012KT 14/M03 A3007 RMK A01 T01351025  RH  033%=      5-min Rain = 0
KES1 202254Z 14011KT 14/M02 A3007 RMK A01 T01351024  RH  033%=      5-min Rain = 0
KES1 202255Z 14012KT 13/M03 A3007 RMK A01 T01341025  RH  033%=      5-min Rain = 0
KES1 202256Z 14013KT 13/M03 A3007 RMK A01 T01331025  RH  033%=      5-min Rain = 0
KES1 202257Z 14013KT 13/M03 A3007 RMK A01 T01321025  RH  033%=      5-min Rain = 0
KES1 202258Z 15013KT 13/M03 A3007 RMK A01 T01321026  RH  033%=      5-min Rain = 0
KES1 202259Z 15013KT 13/M03 A3007 RMK A01 T01321025  RH  033%=      5-min Rain = 0
KES1 202300Z 15011KT 13/M03 A3007 RMK A01 T01321025  RH  034%=      5-min Rain = 0
KES1 202301Z 15010G15KT 13/M03 A3007 RMK A01 T01311025  RH  034%=      5-min Rain = 0
KES1 202302Z 15012KT 13/M03 A3007 RMK A01 T01311025  RH  034%=      5-min Rain = 0
KES1 202303Z 15011KT 13/M03 A3007 RMK A01 T01301025  RH  034%=      5-min Rain = 0
KES1 202304Z 15011KT 13/M03 A3007 RMK A01 T01301025  RH  034%=      5-min Rain = 0
KES1 202305Z 15010KT 13/M03 A3007 RMK A01 T01301025  RH  034%=      5-min Rain = 0
KES1 202306Z 15011KT 13/M03 A3007 RMK A01 T01291025  RH  034%=      5-min Rain = 0
KES1 202307Z 15011KT 13/M03 A3007 RMK A01 T01281025  RH  034%=      5-min Rain = 0
KES1 202308Z 15012KT 13/M03 A3007 RMK A01 T01281025  RH  034%=      5-min Rain = 0
KES1 202309Z 15008KT 13/M03 A3007 RMK A01 T01281025  RH  034%=      5-min Rain = 0
KES1 202310Z 15010KT 13/M03 A3007 RMK A01 T01281025  RH  035%=      5-min Rain = 0
KES1 202311Z 15009KT 13/M03 A3007 RMK A01 T01281025  RH  035%=      5-min Rain = 0
KES1 202312Z 16010KT 13/M03 A3007 RMK A01 T01281025  RH  035%=      5-min Rain = 0
KES1 202313Z 15010KT 13/M02 A3007 RMK A01 T01281024  RH  035%=      5-min Rain = 0
KES1 202314Z 15010KT 13/M03 A3007 RMK A01 T01281025  RH  035%=      5-min Rain = 0
KES1 202315Z 15009KT 13/M02 A3007 RMK A01 T01281024  RH  035%=      5-min Rain = 0
KES1 202316Z 15009KT 13/M02 A3007 RMK A01 T01281024  RH  035%=      5-min Rain = 0
KES1 202317Z 14010KT 13/M02 A3006 RMK A01 T01281023  RH  035%=      5-min Rain = 0
KES1 202318Z 15011KT 13/M02 A3006 RMK A01 T01281024  RH  035%=      5-min Rain = 0
KES1 202319Z 15011KT 13/M02 A3006 RMK A01 T01281024  RH  035%=      5-min Rain = 0
KES1 202320Z 15011KT 13/M02 A3006 RMK A01 T01281024  RH  035%=      5-min Rain = 0
KES1 202321Z 15009KT 13/M02 A3006 RMK A01 T01281024  RH  035%=      5-min Rain = 0
KES1 202322Z 15009KT 13/M02 A3006 RMK A01 T01271023  RH  035%=      5-min Rain = 0
KES1 202323Z 15009KT 13/M02 A3006 RMK A01 T01271023  RH  035%=      5-min Rain = 0
KES1 202324Z 14010KT 13/M02 A3006 RMK A01 T01261023  RH  035%=      5-min Rain = 0
KES1 202325Z 15009KT 13/M02 A3006 RMK A01 T01261023  RH  035%=      5-min Rain = 0
KES1 202326Z 15009KT 13/M02 A3006 RMK A01 T01261023  RH  036%=      5-min Rain = 0
KES1 202327Z 14010KT 13/M02 A3006 RMK A01 T01251023  RH  036%=      5-min Rain = 0
KES1 202328Z 14011KT 13/M02 A3006 RMK A01 T01251023  RH  036%=      5-min Rain = 0
KES1 202329Z 15010KT 12/M02 A3006 RMK A01 T01241023  RH  036%=      5-min Rain = 0
KES1 202330Z 16010KT 12/M02 A3006 RMK A01 T01231023  RH  036%=      5-min Rain = 0
KES1 202331Z 15010KT 12/M02 A3006 RMK A01 T01231023  RH  036%=      5-min Rain = 0
KES1 202332Z 15010KT 12/M02 A3006 RMK A01 T01221023  RH  036%=      5-min Rain = 0
KES1 202333Z 15010KT 12/M02 A3006 RMK A01 T01221023  RH  036%=      5-min Rain = 0
KES1 202334Z 14010KT 12/M02 A3006 RMK A01 T01211023  RH  037%=      5-min Rain = 0
KES1 202335Z 15012KT 12/M02 A3006 RMK A01 T01211023  RH  037%=      5-min Rain = 0
KES1 202336Z 14011KT 12/M02 A3006 RMK A01 T01211023  RH  037%=      5-min Rain = 0
KES1 202337Z 14010KT 12/M02 A3006 RMK A01 T01201023  RH  037%=      5-min Rain = 0
KES1 202338Z 14010KT 12/M02 A3006 RMK A01 T01201023  RH  037%=      5-min Rain = 0
KES1 202339Z 14010KT 12/M02 A3006 RMK A01 T01191023  RH  037%=      5-min Rain = 0
KES1 202340Z 15010KT 12/M02 A3006 RMK A01 T01181023  RH  037%=      5-min Rain = 0
KES1 202341Z 14011KT 12/M02 A3006 RMK A01 T01181023  RH  037%=      5-min Rain = 0
KES1 202342Z 14012KT 12/M02 A3006 RMK A01 T01181023  RH  037%=      5-min Rain = 0
KES1 202343Z 15011KT 12/M02 A3006 RMK A01 T01181022  RH  038%=      5-min Rain = 0
KES1 202344Z 14012KT 12/M02 A3006 RMK A01 T01181022  RH  038%=      5-min Rain = 0
KES1 202345Z 15011KT 12/M02 A3006 RMK A01 T01171022  RH  038%=      5-min Rain = 0
KES1 202346Z 14010KT 12/M02 A3006 RMK A01 T01171022  RH  038%=      5-min Rain = 0
KES1 202347Z 14011KT 12/M02 A3005 RMK A01 T01161022  RH  038%=      5-min Rain = 0
KES1 202348Z 14010KT 12/M02 A3005 RMK A01 T01151022  RH  038%=      5-min Rain = 0
KES1 202349Z 14011KT 11/M02 A3005 RMK A01 T01141022  RH  039%=      5-min Rain = 0
KES1 202350Z 14010KT 11/M02 A3005 RMK A01 T01141022  RH  039%=      5-min Rain = 0
KES1 202351Z 15011KT 11/M02 A3006 RMK A01 T01141021  RH  039%=      5-min Rain = 0
KES1 202352Z 14010KT 11/M02 A3005 RMK A01 T01131021  RH  039%=      5-min Rain = 0
KES1 202353Z 15011KT 11/M02 A3006 RMK A01 T01131021  RH  039%=      5-min Rain = 0
KES1 202354Z 14011KT 11/M02 A3006 RMK A01 T01131021  RH  039%=      5-min Rain = 0
KES1 202355Z 15011KT 11/M02 A3006 RMK A01 T01121021  RH  039%=      5-min Rain = 0
KES1 202356Z 14011KT 11/M02 A3006 RMK A01 T01121021  RH  040%=      5-min Rain = 0
KES1 202357Z 15010KT 11/M02 A3006 RMK A01 T01111021  RH  040%=      5-min Rain = 0
KES1 202358Z 14009KT 11/M02 A3005 RMK A01 T01111021  RH  040%=      5-min Rain = 0
KES1 202359Z 14010KT 11/M02 A3005 RMK A01 T01111021  RH  040%=      5-min Rain = 0
KES1 210000Z 14010KT 11/M02 A3005 RMK A01 T01101021  RH  040%=      5-min Rain = 0
KES1 210001Z 14010KT 11/M02 A3005 RMK A01 T01101020  RH  040%=      5-min Rain = 0
KES1 210002Z 14010KT 11/M02 A3005 RMK A01 T01091020  RH  040%=      5-min Rain = 0
KES1 210003Z 14010KT 11/M02 A3005 RMK A01 T01091020  RH  041%=      5-min Rain = 0
KES1 210004Z 14010KT 11/M02 A3005 RMK A01 T01081020  RH  041%=      5-min Rain = 0
KES1 210005Z 14011KT 11/M02 A3005 RMK A01 T01081020  RH  041%=      5-min Rain = 0
KES1 210006Z 14010KT 11/M02 A3005 RMK A01 T01071020  RH  041%=      5-min Rain = 0
KES1 210007Z 14010KT 11/M02 A3005 RMK A01 T01071020  RH  041%=      5-min Rain = 0
KES1 210008Z 14011KT 11/M02 A3005 RMK A01 T01071020  RH  041%=      5-min Rain = 0
KES1 210009Z 14011KT 11/M02 A3005 RMK A01 T01071020  RH  041%=      5-min Rain = 0
KES1 210010Z 14010KT 11/M02 A3005 RMK A01 T01071020  RH  041%=      5-min Rain = 0
KES1 210011Z 14010KT 11/M02 A3005 RMK A01 T01061020  RH  041%=      5-min Rain = 0
KES1 210012Z 14011KT 11/M02 A3005 RMK A01 T01061020  RH  042%=      5-min Rain = 0
KES1 210013Z 14011KT 11/M02 A3005 RMK A01 T01051019  RH  042%=      5-min Rain = 0
KES1 210014Z 13012KT 11/M02 A3005 RMK A01 T01051019  RH  042%=      5-min Rain = 0
KES1 210015Z 14010KT 11/M02 A3005 RMK A01 T01051019  RH  042%=      5-min Rain = 0
KES1 210016Z 14010KT 11/M02 A3005 RMK A01 T01051019  RH  042%=      5-min Rain = 0
KES1 210017Z 14011KT 10/M02 A3005 RMK A01 T01041019  RH  042%=      5-min Rain = 0
KES1 210018Z 14011KT 10/M02 A3005 RMK A01 T01041019  RH  042%=      5-min Rain = 0
KES1 210019Z 14011KT 10/M02 A3005 RMK A01 T01041019  RH  042%=      5-min Rain = 0
KES1 210020Z 14011KT 10/M02 A3005 RMK A01 T01041019  RH  042%=      5-min Rain = 0
KES1 210021Z 14011KT 10/M02 A3005 RMK A01 T01041019  RH  042%=      5-min Rain = 0
KES1 210022Z 14012KT 10/M02 A3005 RMK A01 T01031018  RH  042%=      5-min Rain = 0
KES1 210023Z 14011KT 10/M02 A3005 RMK A01 T01041018  RH  043%=      5-min Rain = 0
KES1 210024Z 14012KT 10/M02 A3005 RMK A01 T01031018  RH  043%=      5-min Rain = 0
KES1 210025Z 14013KT 10/M02 A3005 RMK A01 T01031018  RH  043%=      5-min Rain = 0
KES1 210026Z 14011KT 10/M02 A3005 RMK A01 T01031018  RH  043%=      5-min Rain = 0
KES1 210027Z 14009KT 10/M02 A3005 RMK A01 T01031018  RH  043%=      5-min Rain = 0
KES1 210028Z 14011KT 10/M02 A3005 RMK A01 T01011018  RH  043%=      5-min Rain = 0
KES1 210029Z 14011KT 10/M02 A3005 RMK A01 T01011018  RH  043%=      5-min Rain = 0
KES1 210030Z 14011KT 10/M02 A3004 RMK A01 T01011018  RH  043%=      5-min Rain = 0
KES1 210031Z 14010KT 10/M02 A3005 RMK A01 T01011018  RH  043%=      5-min Rain = 0
KES1 210032Z 14012KT 10/M02 A3004 RMK A01 T01011018  RH  043%=      5-min Rain = 0
KES1 210033Z 15011KT 10/M02 A3004 RMK A01 T01011018  RH  043%=      5-min Rain = 0
KES1 210034Z 15011KT 10/M02 A3004 RMK A01 T01011018  RH  043%=      5-min Rain = 0
KES1 210035Z 14011KT 10/M02 A3005 RMK A01 T01011018  RH  043%=      5-min Rain = 0
KES1 210036Z 14011KT 10/M02 A3005 RMK A01 T01011017  RH  044%=      5-min Rain = 0
KES1 210037Z 14011KT 10/M02 A3005 RMK A01 T01001018  RH  044%=      5-min Rain = 0
KES1 210038Z 14013KT 10/M02 A3005 RMK A01 T01011017  RH  044%=      5-min Rain = 0
KES1 210039Z 14011KT 10/M02 A3005 RMK A01 T01001018  RH  044%=      5-min Rain = 0
KES1 210040Z 14010KT 10/M02 A3005 RMK A01 T01011017  RH  044%=      5-min Rain = 0
KES1 210041Z 14012KT 10/M02 A3005 RMK A01 T01001017  RH  044%=      5-min Rain = 0
KES1 210042Z 14010KT 10/M02 A3005 RMK A01 T01001017  RH  044%=      5-min Rain = 0
KES1 210043Z 14011KT 10/M02 A3005 RMK A01 T01001017  RH  044%=      5-min Rain = 0
KES1 210044Z 14010KT 10/M02 A3005 RMK A01 T00991017  RH  044%=      5-min Rain = 0
KES1 210045Z 14011KT 10/M02 A3005 RMK A01 T00991017  RH  044%=      5-min Rain = 0
KES1 210046Z 14011KT 10/M02 A3005 RMK A01 T00991016  RH  044%=      5-min Rain = 0
KES1 210047Z 14012KT 10/M02 A3005 RMK A01 T00991016  RH  045%=      5-min Rain = 0
KES1 210048Z 14012KT 10/M02 A3005 RMK A01 T00991016  RH  045%=      5-min Rain = 0
KES1 210049Z 14012KT 10/M02 A3005 RMK A01 T00991016  RH  045%=      5-min Rain = 0
KES1 210050Z 14012KT 10/M02 A3005 RMK A01 T00991016  RH  045%=      5-min Rain = 0
KES1 210051Z 14012KT 10/M02 A3005 RMK A01 T00991015  RH  045%=      5-min Rain = 0
KES1 210052Z 14012KT 10/M02 A3005 RMK A01 T00991015  RH  045%=      5-min Rain = 0
KES1 210053Z 14011KT 10/M02 A3005 RMK A01 T00991015  RH  045%=      5-min Rain = 0
KES1 210054Z 13012KT 10/M02 A3005 RMK A01 T00991015  RH  045%=      5-min Rain = 0
KES1 210055Z 14011KT 10/M02 A3005 RMK A01 T00981015  RH  045%=      5-min Rain = 0
KES1 210056Z 14010KT 10/M02 A3005 RMK A01 T00981015  RH  045%=      5-min Rain = 0
KES1 210057Z 14012KT 10/M02 A3005 RMK A01 T00971015  RH  046%=      5-min Rain = 0
KES1 210058Z 14012KT 10/M02 A3005 RMK A01 T00971015  RH  046%=      5-min Rain = 0
KES1 210059Z 14010KT 10/M02 A3005 RMK A01 T00971015  RH  046%=      5-min Rain = 0
KES1 210100Z 14012KT 10/M01 A3005 RMK A01 T00961014  RH  046%=      5-min Rain = 0
KES1 210101Z 14011G16KT 10/M01 A3005 RMK A01 T00961014  RH  046%=      5-min Rain = 0
KES1 210102Z 14011KT 10/M01 A3005 RMK A01 T00951014  RH  046%=      5-min Rain = 0
KES1 210103Z 13011KT 10/M01 A3005 RMK A01 T00951014  RH  047%=      5-min Rain = 0
KES1 210104Z 14010KT 09/M01 A3005 RMK A01 T00941014  RH  047%=      5-min Rain = 0
KES1 210105Z 14011KT 10/M01 A3005 RMK A01 T00951014  RH  047%=      5-min Rain = 0
KES1 210106Z 13010KT 09/M01 A3005 RMK A01 T00941014  RH  047%=      5-min Rain = 0
KES1 210107Z 13011KT 09/M01 A3005 RMK A01 T00941013  RH  047%=      5-min Rain = 0
KES1 210108Z 13012KT 09/M01 A3005 RMK A01 T00931014  RH  047%=      5-min Rain = 0
KES1 210109Z 13011KT 09/M01 A3005 RMK A01 T00931013  RH  047%=      5-min Rain = 0
KES1 210110Z 13011KT 09/M01 A3005 RMK A01 T00921013  RH  048%=      5-min Rain = 0
KES1 210111Z 14013KT 09/M01 A3005 RMK A01 T00921013  RH  048%=      5-min Rain = 0
KES1 210112Z 13012KT 09/M01 A3005 RMK A01 T00921013  RH  048%=      5-min Rain = 0
KES1 210113Z 14011KT 09/M01 A3005 RMK A01 T00921013  RH  048%=      5-min Rain = 0
KES1 210114Z 14012KT 09/M01 A3005 RMK A01 T00911013  RH  048%=      5-min Rain = 0
KES1 210115Z 14011KT 09/M01 A3005 RMK A01 T00911013  RH  048%=      5-min Rain = 0
KES1 210116Z 14010KT 09/M01 A3005 RMK A01 T00911013  RH  048%=      5-min Rain = 0
KES1 210117Z 14012KT 09/M01 A3005 RMK A01 T00891013  RH  049%=      5-min Rain = 0
KES1 210118Z 14011KT 09/M01 A3005 RMK A01 T00901013  RH  049%=      5-min Rain = 0
KES1 210119Z 14013KT 09/M01 A3005 RMK A01 T00891013  RH  049%=      5-min Rain = 0
KES1 210120Z 14011KT 09/M01 A3005 RMK A01 T00891012  RH  049%=      5-min Rain = 0
KES1 210121Z 14011KT 09/M01 A3005 RMK A01 T00891012  RH  049%=      5-min Rain = 0
KES1 210122Z 14012KT 09/M01 A3005 RMK A01 T00881012  RH  049%=      5-min Rain = 0
KES1 210123Z 14012KT 09/M01 A3005 RMK A01 T00881012  RH  049%=      5-min Rain = 0
KES1 210124Z 14012KT 09/M01 A3005 RMK A01 T00881012  RH  049%=      5-min Rain = 0
KES1 210125Z 14011KT 09/M01 A3005 RMK A01 T00881012  RH  049%=      5-min Rain = 0
KES1 210126Z 14011KT 09/M01 A3005 RMK A01 T00881012  RH  049%=      5-min Rain = 0
KES1 210127Z 14013KT 09/M01 A3005 RMK A01 T00871012  RH  050%=      5-min Rain = 0
KES1 210128Z 14011KT 09/M01 A3005 RMK A01 T00871012  RH  050%=      5-min Rain = 0
KES1 210129Z 14012KT 09/M01 A3005 RMK A01 T00871012  RH  050%=      5-min Rain = 0
KES1 210130Z 14012KT 09/M01 A3005 RMK A01 T00861012  RH  050%=      5-min Rain = 0
KES1 210131Z 14013KT 09/M01 A3005 RMK A01 T00871012  RH  050%=      5-min Rain = 0
KES1 210132Z 14012KT 09/M01 A3005 RMK A01 T00871012  RH  050%=      5-min Rain = 0
KES1 210133Z 14013KT 09/M01 A3005 RMK A01 T00871012  RH  050%=      5-min Rain = 0
KES1 210134Z 14013KT 09/M01 A3005 RMK A01 T00871012  RH  050%=      5-min Rain = 0
KES1 210135Z 14011KT 09/M01 A3005 RMK A01 T00871012  RH  050%=      5-min Rain = 0
KES1 210136Z 14010KT 09/M01 A3005 RMK A01 T00871012  RH  050%=      5-min Rain = 0
KES1 210137Z 14012KT 09/M01 A3005 RMK A01 T00861012  RH  050%=      5-min Rain = 0
KES1 210138Z 14012KT 09/M01 A3005 RMK A01 T00861012  RH  050%=      5-min Rain = 0
KES1 210139Z 14011KT 09/M01 A3005 RMK A01 T00861012  RH  050%=      5-min Rain = 0
KES1 210140Z 14012KT 09/M01 A3005 RMK A01 T00861012  RH  050%=      5-min Rain = 0
KES1 210141Z 14012KT 09/M01 A3005 RMK A01 T00861012  RH  050%=      5-min Rain = 0
KES1 210142Z 14014KT 09/M01 A3005 RMK A01 T00861012  RH  050%=      5-min Rain = 0
KES1 210143Z 14013KT 09/M01 A3005 RMK A01 T00861012  RH  050%=      5-min Rain = 0
KES1 210144Z 14013KT 09/M01 A3005 RMK A01 T00861012  RH  050%=      5-min Rain = 0
KES1 210145Z 14012KT 09/M01 A3005 RMK A01 T00871012  RH  050%=      5-min Rain = 0
KES1 210146Z 14011KT 09/M01 A3004 RMK A01 T00861012  RH  050%=      5-min Rain = 0
KES1 210147Z 14012KT 09/M01 A3004 RMK A01 T00861012  RH  050%=      5-min Rain = 0
KES1 210148Z 14013KT 09/M01 A3004 RMK A01 T00861012  RH  050%=      5-min Rain = 0
KES1 210149Z 14012KT 09/M01 A3005 RMK A01 T00851012  RH  050%=      5-min Rain = 0
KES1 210150Z 14012KT 09/M01 A3005 RMK A01 T00851012  RH  050%=      5-min Rain = 0
KES1 210151Z 14013KT 09/M01 A3004 RMK A01 T00851012  RH  051%=      5-min Rain = 0
KES1 210152Z 14011KT 08/M01 A3004 RMK A01 T00841012  RH  051%=      5-min Rain = 0
KES1 210153Z 14011KT 08/M01 A3004 RMK A01 T00841012  RH  051%=      5-min Rain = 0
KES1 210154Z 14011KT 08/M01 A3004 RMK A01 T00831012  RH  051%=      5-min Rain = 0
KES1 210155Z 14012KT 08/M01 A3004 RMK A01 T00831012  RH  051%=      5-min Rain = 0
KES1 210156Z 14012KT 08/M01 A3004 RMK A01 T00821012  RH  051%=      5-min Rain = 0
KES1 210157Z 13011KT 08/M01 A3004 RMK A01 T00821012  RH  051%=      5-min Rain = 0
KES1 210158Z 14012KT 08/M01 A3004 RMK A01 T00821012  RH  051%=      5-min Rain = 0
KES1 210159Z 13011KT 08/M01 A3004 RMK A01 T00811012  RH  052%=      5-min Rain = 0
KES1 210200Z 14011KT 08/M01 A3004 RMK A01 T00811012  RH  052%=      5-min Rain = 0
KES1 210201Z 13012KT 08/M01 A3004 RMK A01 T00811012  RH  052%=      5-min Rain = 0
KES1 210202Z 13011KT 08/M01 A3004 RMK A01 T00801012  RH  052%=      5-min Rain = 0
KES1 210203Z 13011KT 08/M01 A3004 RMK A01 T00801012  RH  052%=      5-min Rain = 0
KES1 210204Z 13011KT 08/M01 A3004 RMK A01 T00791013  RH  052%=      5-min Rain = 0
KES1 210205Z 13009KT 08/M01 A3004 RMK A01 T00781013  RH  053%=      5-min Rain = 0
KES1 210206Z 14011KT 08/M01 A3004 RMK A01 T00771013  RH  053%=      5-min Rain = 0
KES1 210207Z 13009KT 08/M01 A3005 RMK A01 T00771012  RH  053%=      5-min Rain = 0
KES1 210208Z 13011KT 08/M01 A3004 RMK A01 T00761013  RH  053%=      5-min Rain = 0
KES1 210209Z 13010KT 08/M01 A3004 RMK A01 T00761013  RH  053%=      5-min Rain = 0
KES1 210210Z 13009KT 08/M01 A3004 RMK A01 T00751013  RH  054%=      5-min Rain = 0
KES1 210211Z 13009KT 08/M01 A3004 RMK A01 T00751013  RH  054%=      5-min Rain = 0
KES1 210212Z 13010KT 07/M01 A3004 RMK A01 T00741013  RH  054%=      5-min Rain = 0
KES1 210213Z 13009KT 07/M01 A3004 RMK A01 T00741012  RH  054%=      5-min Rain = 0
KES1 210214Z 13009KT 07/M01 A3004 RMK A01 T00741012  RH  054%=      5-min Rain = 0
KES1 210215Z 13010KT 07/M01 A3004 RMK A01 T00731013  RH  055%=      5-min Rain = 0
KES1 210216Z 13010KT 07/M01 A3004 RMK A01 T00721013  RH  055%=      5-min Rain = 0
KES1 210217Z 12009KT 07/M01 A3004 RMK A01 T00721013  RH  055%=      5-min Rain = 0
KES1 210218Z 13010KT 07/M01 A3004 RMK A01 T00721013  RH  055%=      5-min Rain = 0
KES1 210219Z 13009KT 07/M01 A3004 RMK A01 T00721013  RH  055%=      5-min Rain = 0
KES1 210220Z 13008KT 07/M01 A3004 RMK A01 T00721013  RH  055%=      5-min Rain = 0
KES1 210221Z 13010KT 07/M01 A3004 RMK A01 T00711013  RH  055%=      5-min Rain = 0
KES1 210222Z 13009KT 07/M01 A3004 RMK A01 T00711013  RH  055%=      5-min Rain = 0
KES1 210223Z 13009KT 07/M01 A3004 RMK A01 T00711013  RH  055%=      5-min Rain = 0
KES1 210224Z 13009KT 07/M01 A3004 RMK A01 T00711013  RH  055%=      5-min Rain = 0
KES1 210225Z 13009KT 07/M01 A3004 RMK A01 T00711013  RH  055%=      5-min Rain = 0
KES1 210226Z 13009KT 07/M01 A3004 RMK A01 T00701013  RH  055%=      5-min Rain = 0
KES1 210227Z 13008KT 07/M01 A3004 RMK A01 T00701013  RH  055%=      5-min Rain = 0
KES1 210228Z 13009KT 07/M01 A3004 RMK A01 T00691014  RH  055%=      5-min Rain = 0
KES1 210229Z 13009KT 07/M01 A3004 RMK A01 T00691014  RH  056%=      5-min Rain = 0
KES1 210230Z 13008KT 07/M01 A3004 RMK A01 T00691014  RH  056%=      5-min Rain = 0
KES1 210231Z 13009KT 07/M01 A3004 RMK A01 T00681014  RH  056%=      5-min Rain = 0
KES1 210232Z 13009KT 07/M01 A3004 RMK A01 T00691014  RH  056%=      5-min Rain = 0
KES1 210233Z 12009KT 07/M01 A3004 RMK A01 T00691014  RH  056%=      5-min Rain = 0
KES1 210234Z 13009KT 07/M01 A3004 RMK A01 T00691014  RH  056%=      5-min Rain = 0
KES1 210235Z 13008KT 07/M01 A3004 RMK A01 T00691014  RH  056%=      5-min Rain = 0
KES1 210236Z 13007KT 07/M01 A3004 RMK A01 T00681014  RH  056%=      5-min Rain = 0
KES1 210237Z 12006KT 07/M01 A3004 RMK A01 T00671014  RH  056%=      5-min Rain = 0
KES1 210238Z 12007KT 07/M01 A3004 RMK A01 T00671014  RH  056%=      5-min Rain = 0
KES1 210239Z 12007KT 07/M02 A3004 RMK A01 T00661015  RH  056%=      5-min Rain = 0
KES1 210240Z 12008KT 07/M02 A3004 RMK A01 T00661015  RH  056%=      5-min Rain = 0
KES1 210241Z 12007KT 07/M02 A3004 RMK A01 T00661015  RH  056%=      5-min Rain = 0
KES1 210242Z 12007KT 07/M02 A3004 RMK A01 T00661015  RH  056%=      5-min Rain = 0
KES1 210243Z 12006KT 07/M02 A3004 RMK A01 T00661015  RH  056%=      5-min Rain = 0
KES1 210244Z 12005KT 07/M02 A3004 RMK A01 T00651016  RH  056%=      5-min Rain = 0
KES1 210245Z 11007KT 06/M02 A3004 RMK A01 T00641016  RH  057%=      5-min Rain = 0
KES1 210246Z 11006KT 06/M02 A3004 RMK A01 T00641015  RH  057%=      5-min Rain = 0
KES1 210247Z 11005KT 06/M02 A3004 RMK A01 T00641015  RH  057%=      5-min Rain = 0
KES1 210248Z 11005KT 06/M02 A3004 RMK A01 T00641016  RH  057%=      5-min Rain = 0
KES1 210249Z 11005KT 06/M02 A3004 RMK A01 T00621016  RH  057%=      5-min Rain = 0
KES1 210250Z 10006KT 06/M02 A3004 RMK A01 T00611016  RH  058%=      5-min Rain = 0
KES1 210251Z 10006KT 06/M02 A3003 RMK A01 T00601016  RH  058%=      5-min Rain = 0
KES1 210252Z 10005KT 06/M02 A3003 RMK A01 T00601016  RH  058%=      5-min Rain = 0
KES1 210253Z 10005KT 06/M02 A3003 RMK A01 T00601016  RH  058%=      5-min Rain = 0
KES1 210254Z 10005KT 06/M02 A3003 RMK A01 T00591016  RH  058%=      5-min Rain = 0
KES1 210255Z 10005KT 06/M02 A3003 RMK A01 T00581017  RH  059%=      5-min Rain = 0
KES1 210256Z 09005KT 06/M02 A3003 RMK A01 T00571017  RH  059%=      5-min Rain = 0
KES1 210257Z 08004KT 06/M02 A3003 RMK A01 T00561017  RH  059%=      5-min Rain = 0
KES1 210258Z 06005KT 05/M02 A3003 RMK A01 T00511023  RH  059%=      5-min Rain = 0
KES1 210259Z 06005KT 05/M03 A3003 RMK A01 T00451027  RH  060%=      5-min Rain = 0
KES1 210300Z 06005KT 04/M03 A3004 RMK A01 T00401028  RH  061%=      5-min Rain = 0
KES1 210301Z 06005KT 04/M03 A3004 RMK A01 T00361028  RH  063%=      5-min Rain = 0
KES1 210302Z 06005KT 03/M03 A3004 RMK A01 T00331028  RH  064%=      5-min Rain = 0
KES1 210303Z 06005KT 03/M03 A3003 RMK A01 T00311028  RH  065%=      5-min Rain = 0
KES1 210304Z 07005KT 03/M03 A3003 RMK A01 T00291028  RH  066%=      5-min Rain = 0
KES1 210305Z 06005KT 03/M03 A3003 RMK A01 T00281027  RH  067%=      5-min Rain = 0
KES1 210306Z 07005KT 03/M03 A3003 RMK A01 T00271027  RH  067%=      5-min Rain = 0
KES1 210307Z 07005KT 03/M03 A3003 RMK A01 T00261027  RH  068%=      5-min Rain = 0
KES1 210308Z 07005KT 03/M03 A3003 RMK A01 T00261027  RH  068%=      5-min Rain = 0
KES1 210309Z 08005KT 03/M03 A3003 RMK A01 T00251027  RH  068%=      5-min Rain = 0
KES1 210310Z 08005KT 03/M03 A3003 RMK A01 T00251027  RH  069%=      5-min Rain = 0
KES1 210311Z 08005KT 02/M03 A3003 RMK A01 T00241028  RH  069%=      5-min Rain = 0
KES1 210312Z 08005KT 02/M03 A3003 RMK A01 T00231029  RH  069%=      5-min Rain = 0
KES1 210313Z 08005KT 02/M03 A3003 RMK A01 T00231028  RH  069%=      5-min Rain = 0
KES1 210314Z 07005KT 02/M03 A3003 RMK A01 T00221027  RH  070%=      5-min Rain = 0
KES1 210315Z 08005KT 02/M03 A3003 RMK A01 T00231026  RH  070%=      5-min Rain = 0
KES1 210316Z 08004KT 02/M03 A3003 RMK A01 T00231026  RH  070%=      5-min Rain = 0
KES1 210317Z 08005KT 02/M03 A3003 RMK A01 T00231026  RH  070%=      5-min Rain = 0
KES1 210318Z 09005KT 02/M03 A3003 RMK A01 T00231026  RH  070%=      5-min Rain = 0
KES1 210319Z 09005KT 02/M03 A3003 RMK A01 T00231026  RH  070%=      5-min Rain = 0
KES1 210320Z 08005KT 02/M03 A3003 RMK A01 T00231026  RH  070%=      5-min Rain = 0
KES1 210321Z 10005KT 02/M03 A3003 RMK A01 T00231026  RH  070%=      5-min Rain = 0
KES1 210322Z 09005KT 02/M03 A3003 RMK A01 T00241025  RH  070%=      5-min Rain = 0
KES1 210323Z 09006KT 03/M02 A3003 RMK A01 T00251024  RH  070%=      5-min Rain = 0
KES1 210324Z 09005KT 03/M02 A3003 RMK A01 T00271022  RH  070%=      5-min Rain = 0
KES1 210325Z 09006KT 03/M02 A3003 RMK A01 T00291022  RH  069%=      5-min Rain = 0
KES1 210326Z 09006KT 03/M02 A3003 RMK A01 T00301022  RH  069%=      5-min Rain = 0
KES1 210327Z 09006KT 03/M02 A3003 RMK A01 T00311021  RH  068%=      5-min Rain = 0
KES1 210328Z 09006KT 03/M02 A3003 RMK A01 T00321021  RH  068%=      5-min Rain = 0
KES1 210329Z 09006KT 03/M02 A3003 RMK A01 T00331021  RH  068%=      5-min Rain = 0
KES1 210330Z 09006KT 03/M02 A3003 RMK A01 T00341021  RH  067%=      5-min Rain = 0
KES1 210331Z 09005KT 04/M02 A3003 RMK A01 T00351021  RH  067%=      5-min Rain = 0
KES1 210332Z 09005KT 03/M02 A3003 RMK A01 T00341021  RH  067%=      5-min Rain = 0
KES1 210333Z 09007KT 03/M02 A3003 RMK A01 T00341021  RH  067%=      5-min Rain = 0
KES1 210334Z 09006KT 03/M02 A3003 RMK A01 T00341021  RH  067%=      5-min Rain = 0
KES1 210335Z 09006KT 03/M02 A3003 RMK A01 T00341022  RH  067%=      5-min Rain = 0
KES1 210336Z 09006KT 03/M02 A3003 RMK A01 T00341021  RH  067%=      5-min Rain = 0
KES1 210337Z 09006KT 04/M02 A3003 RMK A01 T00351021  RH  067%=      5-min Rain = 0
KES1 210338Z 09006KT 04/M02 A3003 RMK A01 T00351021  RH  067%=      5-min Rain = 0
KES1 210339Z 09006KT 04/M02 A3003 RMK A01 T00351020  RH  067%=      5-min Rain = 0
KES1 210340Z 09005KT 04/M02 A3003 RMK A01 T00351021  RH  067%=      5-min Rain = 0
KES1 210341Z 09007KT 04/M02 A3002 RMK A01 T00351021  RH  067%=      5-min Rain = 0
KES1 210342Z 10006KT 04/M02 A3002 RMK A01 T00351021  RH  067%=      5-min Rain = 0
KES1 210343Z 09006KT 03/M02 A3002 RMK A01 T00341021  RH  067%=      5-min Rain = 0
KES1 210344Z 09006KT 03/M02 A3002 RMK A01 T00341021  RH  067%=      5-min Rain = 0
KES1 210345Z 10006KT 03/M02 A3002 RMK A01 T00341021  RH  067%=      5-min Rain = 0
KES1 210346Z 10006KT 03/M02 A3002 RMK A01 T00341021  RH  067%=      5-min Rain = 0
KES1 210347Z 10006KT 03/M02 A3002 RMK A01 T00331021  RH  067%=      5-min Rain = 0
KES1 210348Z 10005KT 03/M02 A3002 RMK A01 T00331022  RH  067%=      5-min Rain = 0
KES1 210349Z 10006KT 03/M02 A3002 RMK A01 T00331022  RH  067%=      5-min Rain = 0
KES1 210350Z 10005KT 03/M02 A3002 RMK A01 T00331022  RH  067%=      5-min Rain = 0
KES1 210351Z 10006KT 03/M02 A3002 RMK A01 T00331021  RH  067%=      5-min Rain = 0
KES1 210352Z 10006KT 03/M02 A3002 RMK A01 T00341021  RH  067%=      5-min Rain = 0
KES1 210353Z 10005KT 03/M02 A3002 RMK A01 T00331022  RH  067%=      5-min Rain = 0
KES1 210354Z 10006KT 03/M02 A3002 RMK A01 T00331021  RH  067%=      5-min Rain = 0
KES1 210355Z 10005KT 03/M02 A3002 RMK A01 T00331021  RH  067%=      5-min Rain = 0
KES1 210356Z 10005KT 03/M02 A3002 RMK A01 T00331021  RH  067%=      5-min Rain = 0
KES1 210357Z 10005KT 03/M02 A3002 RMK A01 T00331021  RH  068%=      5-min Rain = 0
KES1 210358Z 10006KT 03/M02 A3002 RMK A01 T00331021  RH  068%=      5-min Rain = 0
KES1 210359Z 10006KT 03/M02 A3002 RMK A01 T00331022  RH  068%=      5-min Rain = 0
KES1 210400Z 09006KT 03/M02 A3002 RMK A01 T00331022  RH  067%=      5-min Rain = 0
KES1 210401Z 09006KT 03/M02 A3001 RMK A01 T00331022  RH  067%=      5-min Rain = 0
KES1 210402Z 09005KT 03/M02 A3001 RMK A01 T00331022  RH  067%=      5-min Rain = 0
KES1 210403Z 09005KT 03/M02 A3002 RMK A01 T00331022  RH  067%=      5-min Rain = 0
KES1 210404Z 09004KT 03/M02 A3002 RMK A01 T00331022  RH  067%=      5-min Rain = 0
KES1 210405Z 09004KT 03/M02 A3001 RMK A01 T00321022  RH  067%=      5-min Rain = 0
KES1 210406Z 08002KT 03/M02 A3001 RMK A01 T00321023  RH  067%=      5-min Rain = 0
KES1 210407Z 09002KT 03/M03 A3001 RMK A01 T00291026  RH  067%=      5-min Rain = 0
KES1 210408Z 07003KT 03/M03 A3001 RMK A01 T00271027  RH  068%=      5-min Rain = 0
KES1 210409Z 08003KT 02/M03 A3001 RMK A01 T00241027  RH  069%=      5-min Rain = 0
KES1 210410Z 08003KT 02/M03 A3001 RMK A01 T00221027  RH  070%=      5-min Rain = 0
KES1 210411Z 07003KT 02/M03 A3001 RMK A01 T00211027  RH  071%=      5-min Rain = 0
KES1 210412Z 07003KT 02/M03 A3001 RMK A01 T00201027  RH  071%=      5-min Rain = 0
KES1 210413Z 06004KT 02/M03 A3001 RMK A01 T00191026  RH  072%=      5-min Rain = 0
KES1 210414Z 06004KT 02/M03 A3001 RMK A01 T00191026  RH  072%=      5-min Rain = 0
KES1 210415Z 06004KT 02/M03 A3001 RMK A01 T00181026  RH  072%=      5-min Rain = 0
KES1 210416Z 06004KT 02/M03 A3001 RMK A01 T00171027  RH  073%=      5-min Rain = 0
KES1 210417Z 06004KT 02/M03 A3001 RMK A01 T00161027  RH  073%=      5-min Rain = 0
KES1 210418Z 06004KT 02/M03 A3001 RMK A01 T00161027  RH  073%=      5-min Rain = 0
KES1 210419Z 07004KT 02/M03 A3001 RMK A01 T00151027  RH  073%=      5-min Rain = 0
KES1 210420Z 07004KT 02/M03 A3001 RMK A01 T00151027  RH  073%=      5-min Rain = 0
KES1 210421Z 07004KT 01/M03 A3001 RMK A01 T00141027  RH  074%=      5-min Rain = 0
KES1 210422Z 07004KT 01/M03 A3001 RMK A01 T00141027  RH  074%=      5-min Rain = 0
KES1 210423Z 06004KT 01/M03 A3001 RMK A01 T00141027  RH  074%=      5-min Rain = 0
KES1 210424Z 06003KT 01/M03 A3001 RMK A01 T00141027  RH  074%=      5-min Rain = 0
KES1 210425Z 06004KT 01/M03 A3001 RMK A01 T00131027  RH  074%=      5-min Rain = 0
KES1 210426Z 07004KT 01/M03 A3001 RMK A01 T00131027  RH  075%=      5-min Rain = 0
KES1 210427Z 07004KT 01/M03 A3001 RMK A01 T00131027  RH  075%=      5-min Rain = 0
KES1 210428Z 06004KT 01/M03 A3001 RMK A01 T00131027  RH  075%=      5-min Rain = 0
KES1 210429Z 06004KT 01/M03 A3001 RMK A01 T00121027  RH  075%=      5-min Rain = 0
KES1 210430Z 06004KT 01/M03 A3001 RMK A01 T00131027  RH  075%=      5-min Rain = 0
KES1 210431Z 06004KT 01/M03 A3001 RMK A01 T00131027  RH  075%=      5-min Rain = 0
KES1 210432Z 06004KT 01/M03 A3001 RMK A01 T00131027  RH  075%=      5-min Rain = 0
KES1 210433Z 06004KT 01/M03 A3001 RMK A01 T00121027  RH  075%=      5-min Rain = 0
KES1 210434Z 07004KT 01/M03 A3001 RMK A01 T00111028  RH  075%=      5-min Rain = 0
KES1 210435Z 06004KT 01/M03 A3001 RMK A01 T00111027  RH  075%=      5-min Rain = 0
KES1 210436Z 06004KT 01/M03 A3001 RMK A01 T00111027  RH  075%=      5-min Rain = 0
KES1 210437Z 06004KT 01/M03 A3001 RMK A01 T00111027  RH  076%=      5-min Rain = 0
KES1 210438Z 06004KT 01/M03 A3001 RMK A01 T00111027  RH  076%=      5-min Rain = 0
KES1 210439Z 07003KT 01/M03 A3001 RMK A01 T00111027  RH  075%=      5-min Rain = 0
KES1 210440Z 07004KT 01/M03 A3001 RMK A01 T00111028  RH  075%=      5-min Rain = 0
KES1 210441Z 07004KT 01/M03 A3001 RMK A01 T00111028  RH  075%=      5-min Rain = 0
KES1 210442Z 07004KT 01/M03 A3001 RMK A01 T00101029  RH  075%=      5-min Rain = 0
KES1 210443Z 07004KT 01/M03 A3001 RMK A01 T00101029  RH  076%=      5-min Rain = 0
KES1 210444Z 07004KT 01/M03 A3001 RMK A01 T00091029  RH  076%=      5-min Rain = 0
KES1 210445Z 07004KT 01/M03 A3001 RMK A01 T00091029  RH  076%=      5-min Rain = 0
KES1 210446Z 07003KT 01/M03 A3001 RMK A01 T00091029  RH  076%=      5-min Rain = 0
KES1 210447Z 07003KT 01/M03 A3001 RMK A01 T00081029  RH  076%=      5-min Rain = 0
KES1 210448Z 07003KT 01/M03 A3001 RMK A01 T00081029  RH  076%=      5-min Rain = 0
KES1 210449Z 07003KT 01/M03 A3001 RMK A01 T00081029  RH  076%=      5-min Rain = 0
KES1 210450Z 08003KT 01/M03 A3001 RMK A01 T00081029  RH  076%=      5-min Rain = 0
KES1 210451Z 07003KT 01/M03 A3001 RMK A01 T00081029  RH  076%=      5-min Rain = 0
KES1 210452Z 07003KT 01/M03 A3001 RMK A01 T00081029  RH  076%=      5-min Rain = 0
KES1 210453Z 06003KT 01/M03 A3001 RMK A01 T00091028  RH  076%=      5-min Rain = 0
KES1 210454Z 06002KT 01/M03 A3001 RMK A01 T00091028  RH  076%=      5-min Rain = 0
KES1 210455Z 05003KT 01/M03 A3001 RMK A01 T00091028  RH  076%=      5-min Rain = 0
KES1 210456Z 05003KT 01/M03 A3001 RMK A01 T00091028  RH  076%=      5-min Rain = 0
KES1 210457Z 04003KT 01/M03 A3001 RMK A01 T00091028  RH  076%=      5-min Rain = 0
KES1 210458Z 04003KT 01/M03 A3001 RMK A01 T00091028  RH  076%=      5-min Rain = 0
KES1 210459Z 04003KT 01/M03 A3001 RMK A01 T00091028  RH  076%=      5-min Rain = 0
KES1 210500Z 04004KT 01/M03 A3001 RMK A01 T00091028  RH  076%=      5-min Rain = 0
KES1 210501Z 04004KT 01/M03 A3001 RMK A01 T00091028  RH  076%=      5-min Rain = 0
KES1 210502Z 04004KT 01/M03 A3001 RMK A01 T00091028  RH  076%=      5-min Rain = 0
KES1 210503Z 04004KT 01/M03 A3001 RMK A01 T00091028  RH  076%=      5-min Rain = 0
KES1 210504Z 05004KT 01/M03 A3001 RMK A01 T00091028  RH  076%=      5-min Rain = 0
KES1 210505Z 05004KT 01/M03 A3001 RMK A01 T00091028  RH  076%=      5-min Rain = 0
KES1 210506Z 06004KT 01/M03 A3001 RMK A01 T00091029  RH  076%=      5-min Rain = 0
KES1 210507Z 06004KT 01/M03 A3001 RMK A01 T00091029  RH  076%=      5-min Rain = 0
KES1 210508Z 07004KT 01/M03 A3001 RMK A01 T00081030  RH  076%=      5-min Rain = 0
KES1 210509Z 07004KT 01/M03 A3001 RMK A01 T00061033  RH  075%=      5-min Rain = 0
KES1 210510Z 07004KT 00/M04 A3001 RMK A01 T00031035  RH  075%=      5-min Rain = 0
KES1 210511Z 07004KT 00/M03 A3001 RMK A01 T00021034  RH  077%=      5-min Rain = 0
KES1 210512Z 07004KT 00/M03 A3001 RMK A01 T00011033  RH  078%=      5-min Rain = 0
KES1 210513Z 07004KT 00/M03 A3002 RMK A01 T00011032  RH  078%=      5-min Rain = 0
KES1 210514Z 07004KT 00/M03 A3002 RMK A01 T00021031  RH  078%=      5-min Rain = 0
KES1 210515Z 07004KT 00/M03 A3002 RMK A01 T00021031  RH  078%=      5-min Rain = 0
KES1 210516Z 07004KT 00/M03 A3002 RMK A01 T00021032  RH  078%=      5-min Rain = 0
KES1 210517Z 07004KT 00/M03 A3002 RMK A01 T00021032  RH  078%=      5-min Rain = 0
KES1 210518Z 07004KT 00/M03 A3002 RMK A01 T00021032  RH  078%=      5-min Rain = 0
KES1 210519Z 07004KT 00/M03 A3002 RMK A01 T00011032  RH  078%=      5-min Rain = 0
KES1 210520Z 07004KT 00/M03 A3002 RMK A01 T00011032  RH  078%=      5-min Rain = 0
KES1 210521Z 07004KT 00/M03 A3002 RMK A01 T00021032  RH  078%=      5-min Rain = 0
KES1 210522Z 07004KT 00/M03 A3002 RMK A01 T00021032  RH  078%=      5-min Rain = 0
KES1 210523Z 08004KT 00/M03 A3002 RMK A01 T00011032  RH  078%=      5-min Rain = 0
KES1 210524Z 08004KT 00/M03 A3002 RMK A01 T00011032  RH  078%=      5-min Rain = 0
KES1 210525Z 08003KT 00/M03 A3002 RMK A01 T00011032  RH  079%=      5-min Rain = 0
KES1 210526Z 08004KT 00/M03 A3002 RMK A01 T00011032  RH  079%=      5-min Rain = 0
KES1 210527Z 08004KT 00/M03 A3002 RMK A01 T00011032  RH  079%=      5-min Rain = 0
KES1 210528Z 08003KT 00/M03 A3002 RMK A01 T00011032  RH  079%=      5-min Rain = 0
KES1 210529Z 08003KT 00/M03 A3002 RMK A01 T00011031  RH  079%=      5-min Rain = 0
KES1 210530Z 08004KT 00/M03 A3002 RMK A01 T00011031  RH  079%=      5-min Rain = 0
KES1 210531Z 08004KT 00/M03 A3002 RMK A01 T00011031  RH  079%=      5-min Rain = 0
KES1 210532Z 08004KT 00/M03 A3002 RMK A01 T00021031  RH  079%=      5-min Rain = 0
KES1 210533Z 08004KT 00/M03 A3002 RMK A01 T00021031  RH  078%=      5-min Rain = 0
KES1 210534Z 08004KT 00/M03 A3002 RMK A01 T00021031  RH  078%=      5-min Rain = 0
KES1 210535Z 08004KT 00/M03 A3002 RMK A01 T00021031  RH  078%=      5-min Rain = 0
KES1 210536Z 08004KT 00/M03 A3002 RMK A01 T00021032  RH  078%=      5-min Rain = 0
KES1 210537Z 08004KT 00/M03 A3002 RMK A01 T00021031  RH  078%=      5-min Rain = 0
KES1 210538Z 08004KT 00/M03 A3002 RMK A01 T00011032  RH  078%=      5-min Rain = 0
KES1 210539Z 08004KT 00/M03 A3002 RMK A01 T00021032  RH  078%=      5-min Rain = 0
KES1 210540Z 08003KT 00/M03 A3002 RMK A01 T00021032  RH  078%=      5-min Rain = 0
KES1 210541Z 08003KT 00/M03 A3002 RMK A01 T00021032  RH  078%=      5-min Rain = 0
KES1 210542Z 09003KT 00/M03 A3002 RMK A01 T00031032  RH  078%=      5-min Rain = 0
KES1 210543Z 08003KT 00/M03 A3002 RMK A01 T00031032  RH  077%=      5-min Rain = 0
KES1 210544Z 07002KT 00/M03 A3002 RMK A01 T00031032  RH  077%=      5-min Rain = 0
KES1 210545Z 07003KT 00/M03 A3002 RMK A01 T00031031  RH  077%=      5-min Rain = 0
KES1 210546Z 07003KT 00/M03 A3002 RMK A01 T00041031  RH  077%=      5-min Rain = 0
KES1 210547Z 07003KT 00/M03 A3002 RMK A01 T00041032  RH  077%=      5-min Rain = 0
KES1 210548Z 07003KT 00/M03 A3002 RMK A01 T00041032  RH  077%=      5-min Rain = 0
KES1 210549Z 07003KT 00/M03 A3002 RMK A01 T00041032  RH  077%=      5-min Rain = 0
KES1 210550Z 07004KT 00/M03 A3002 RMK A01 T00031033  RH  077%=      5-min Rain = 0
KES1 210551Z 06004KT 00/M03 A3001 RMK A01 T00021034  RH  077%=      5-min Rain = 0
KES1 210552Z 06004KT 00/M03 A3001 RMK A01 T00021033  RH  077%=      5-min Rain = 0
KES1 210553Z 06003KT 00/M03 A3001 RMK A01 T00011033  RH  078%=      5-min Rain = 0
KES1 210554Z 06003KT 00/M03 A3001 RMK A01 T00011034  RH  078%=      5-min Rain = 0
KES1 210555Z 06004KT 00/03 A3001 RMK A01 T00-00-34  RH  078%=      5-min Rain = 0
KES1 210556Z 07004KT 00/03 A3001 RMK A01 T00-00-34  RH  078%=      5-min Rain = 0
KES1 210557Z 07004KT M00/M04 A3001 RMK A01 T10011035  RH  078%=      5-min Rain = 0
KES1 210558Z 07004KT M00/M04 A3001 RMK A01 T10021035  RH  078%=      5-min Rain = 0
KES1 210559Z 07004KT M00/M04 A3001 RMK A01 T10031035  RH  079%=      5-min Rain = 0

Page generated in 0.0815 seconds.